IW9BHU-13 Weather Reports


Display with metric or nautical units.
time (UTC)temp
F
wind
direction
speed
MPH
gust
MPH
rain 1hr
in
rain 24hr
in
rain mn
in
humidity
%
barometer
mb
20260507224104 66 196 3.0 10.0 0.00 0.00 0.00 79 1007.9
20260507224004 66 196 3.0 9.0 0.00 0.00 0.00 79 1007.9
20260507223904 66 196 3.0 9.0 0.00 0.00 0.00 79 1007.9
20260507223804 66 194 3.0 9.0 0.00 0.00 0.00 79 1008.0
20260507223704 66 196 3.0 9.0 0.00 0.00 0.00 79 1008.0
20260507223604 66 193 3.0 9.0 0.00 0.00 0.00 79 1008.0
20260507223505 66 190 3.0 9.0 0.00 0.00 0.00 78 1008.1
20260507223405 66 190 3.0 9.0 0.00 0.00 0.00 78 1008.1
20260507223304 66 191 3.0 9.0 0.00 0.00 0.00 78 1008.2
20260507223206 66 191 3.0 9.0 0.00 0.00 0.00 78 1008.2
20260507223105 66 193 3.0 9.0 0.00 0.00 0.00 78 1008.2
20260507223004 66 192 3.0 9.0 0.00 0.00 0.00 78 1008.3
20260507222904 66 191 3.0 9.0 0.00 0.00 0.00 78 1008.3
20260507222805 66 193 3.0 9.0 0.00 0.00 0.00 78 1008.3
20260507222705 66 193 3.0 9.0 0.00 0.00 0.00 77 1008.3
20260507222605 66 196 3.0 9.0 0.00 0.00 0.00 77 1008.3
20260507222505 66 197 3.0 9.0 0.00 0.00 0.00 77 1008.1
20260507222404 66 198 3.0 9.0 0.00 0.00 0.00 77 1008.1
20260507222306 67 197 3.0 9.0 0.00 0.00 0.00 77 1008.2
20260507222204 67 198 4.0 9.0 0.00 0.00 0.00 77 1008.1
20260507222105 67 195 4.0 9.0 0.00 0.00 0.00 77 1008.1
20260507222005 67 200 4.0 9.0 0.00 0.00 0.00 77 1008.2
20260507221904 67 199 4.0 9.0 0.00 0.00 0.00 77 1008.2
20260507221806 67 200 4.0 9.0 0.00 0.00 0.00 77 1008.2
20260507221712 67 201 4.0 9.0 0.00 0.00 0.00 77 1008.1
20260507221605 67 200 4.0 9.0 0.00 0.00 0.00 77 1008.1
20260507221505 67 201 4.0 9.0 0.00 0.00 0.00 77 1008.0
20260507221404 67 199 4.0 9.0 0.00 0.00 0.00 77 1008.0
20260507221304 67 199 4.0 9.0 0.00 0.00 0.00 77 1008.0
20260507221204 67 198 4.0 9.0 0.00 0.00 0.00 77 1008.0
20260507221104 67 199 4.0 9.0 0.00 0.00 0.00 77 1008.0
20260507221004 67 199 5.0 9.0 0.00 0.00 0.00 76 1007.9
20260507220904 67 197 5.0 9.0 0.00 0.00 0.00 76 1007.9
20260507220804 67 195 5.0 9.0 0.00 0.00 0.00 76 1007.9
20260507220704 67 195 5.0 9.0 0.00 0.00 0.00 76 1007.9
20260507220605 67 196 5.0 11.0 0.00 0.00 0.00 76 1007.9
20260507220506 67 194 5.0 12.0 0.00 0.00 0.00 76 1007.9
20260507220405 67 195 5.0 12.0 0.00 0.00 0.00 76 1007.9
20260507220304 67 194 5.0 12.0 0.00 0.00 0.00 76 1007.9
20260507220207 67 196 5.0 12.0 0.00 0.00 0.00 76 1007.9
20260507220104 67 196 5.0 12.0 0.00 0.00 0.00 76 1007.9
20260507220036 67 195 5.0 12.0 0.00 0.00 0.00 76 1007.9
20260507215903 67 193 5.0 12.0 0.00 0.00 0.00 76 1008.0
20260507215804 67 193 5.0 12.0 0.00 0.00 0.00 76 1008.0
20260507215704 67 193 5.0 12.0 0.00 0.00 0.00 76 1007.9
20260507215604 67 191 5.0 12.0 0.00 0.00 0.00 76 1007.9
20260507215504 67 192 5.0 10.0 0.00 0.00 0.00 75 1007.9
20260507215404 67 190 5.0 10.0 0.00 0.00 0.00 75 1007.9
20260507215306 67 193 5.0 10.0 0.00 0.00 0.00 75 1007.9
20260507215204 67 193 5.0 10.0 0.00 0.00 0.00 75 1007.8
20260507215103 67 194 5.0 10.0 0.00 0.00 0.00 75 1007.9
20260507215004 67 196 5.0 10.0 0.00 0.00 0.00 75 1007.9
20260507214910 67 196 5.0 10.0 0.00 0.00 0.00 75 1007.9
20260507214805 67 197 5.0 11.0 0.00 0.00 0.00 75 1007.9
20260507214704 67 198 5.0 11.0 0.00 0.00 0.00 75 1007.9
20260507214605 67 202 5.0 11.0 0.00 0.00 0.00 75 1007.9
20260507214504 67 202 5.0 11.0 0.00 0.00 0.00 75 1007.9
20260507214404 67 202 5.0 11.0 0.00 0.00 0.00 75 1007.8
20260507214304 67 203 5.0 11.0 0.00 0.00 0.00 75 1007.8
20260507214204 67 201 5.0 11.0 0.00 0.00 0.00 75 1008.0
20260507214104 67 200 5.0 11.0 0.00 0.00 0.00 75 1007.9
20260507214004 67 200 5.0 11.0 0.00 0.00 0.00 75 1007.9
20260507213904 67 201 5.0 11.0 0.00 0.00 0.00 75 1007.8
20260507213804 67 201 4.0 11.0 0.00 0.00 0.00 74 1007.8
20260507213704 67 199 4.0 11.0 0.00 0.00 0.00 74 1007.8
20260507213604 67 196 4.0 11.0 0.00 0.00 0.00 74 1007.9
20260507213505 67 196 4.0 11.0 0.00 0.00 0.00 74 1007.9
20260507213405 67 195 4.0 11.0 0.00 0.00 0.00 74 1008.0
20260507213305 67 194 4.0 11.0 0.00 0.00 0.00 74 1008.1
20260507213207 67 194 4.0 11.0 0.00 0.00 0.00 74 1008.1
20260507213107 67 194 4.0 10.0 0.00 0.00 0.00 74 1008.1
20260507213005 67 194 4.0 10.0 0.00 0.00 0.00 73 1008.1
20260507212906 67 195 4.0 10.0 0.00 0.00 0.00 73 1008.1
20260507212805 67 197 5.0 10.0 0.00 0.00 0.00 73 1008.1
20260507212705 67 198 5.0 10.0 0.00 0.00 0.00 73 1008.1
20260507212605 67 198 5.0 9.0 0.00 0.00 0.00 73 1008.2
20260507212505 67 197 5.0 9.0 0.00 0.00 0.00 73 1008.2
20260507212405 67 199 5.0 9.0 0.00 0.00 0.00 73 1008.3
20260507212307 67 200 5.0 9.0 0.00 0.00 0.00 73 1008.3
20260507212205 67 200 5.0 13.0 0.00 0.00 0.00 73 1008.3
20260507212105 67 199 5.0 13.0 0.00 0.00 0.00 73 1008.3
20260507212006 67 200 5.0 13.0 0.00 0.00 0.00 73 1008.3
20260507211806 68 198 5.0 13.0 0.00 0.00 0.00 73 1008.4
20260507211704 67 198 5.0 13.0 0.00 0.00 0.00 73 1008.4
20260507211607 67 199 5.0 13.0 0.00 0.00 0.00 73 1008.5
20260507211505 68 199 5.0 13.0 0.00 0.00 0.00 73 1008.5
20260507211405 68 198 5.0 13.0 0.00 0.00 0.00 73 1008.5
20260507211305 68 199 5.0 13.0 0.00 0.00 0.00 73 1008.4
20260507211205 68 201 5.0 12.0 0.00 0.00 0.00 73 1008.4
20260507211004 68 200 4.0 12.0 0.00 0.00 0.00 73 1008.4
20260507210905 68 201 4.0 12.0 0.00 0.00 0.00 72 1008.4
20260507210804 68 202 4.0 11.0 0.00 0.00 0.00 72 1008.4
20260507210705 68 202 4.0 11.0 0.00 0.00 0.00 72 1008.4
20260507210605 68 201 4.0 11.0 0.00 0.00 0.00 72 1008.3
20260507210505 68 204 4.0 11.0 0.00 0.00 0.00 72 1008.3
20260507210406 68 205 4.0 9.0 0.00 0.00 0.00 72 1008.3
20260507210306 68 204 4.0 9.0 0.00 0.00 0.00 72 1008.3
20260507210204 68 203 4.0 9.0 0.00 0.00 0.00 72 1008.3
20260507210106 68 203 4.0 9.0 0.00 0.00 0.00 72 1008.3
20260507210005 68 205 4.0 9.0 0.00 0.00 0.00 72 1008.3
20260507205905 68 205 4.0 9.0 0.00 0.00 0.00 72 1008.3
20260507205804 68 204 4.0 9.0 0.00 0.00 0.00 72 1008.2
20260507205704 68 202 4.0 10.0 0.00 0.00 0.00 72 1008.2
20260507205604 68 202 4.0 10.0 0.00 0.00 0.00 72 1008.2
20260507205505 68 203 4.0 10.0 0.00 0.00 0.00 72 1008.0
20260507205405 68 204 4.0 10.0 0.00 0.00 0.00 72 1008.0
20260507205306 68 204 4.0 10.0 0.00 0.00 0.00 72 1008.0
20260507205205 68 205 4.0 10.0 0.00 0.00 0.00 72 1007.9
20260507205105 68 207 4.0 10.0 0.00 0.00 0.00 72 1007.9
20260507205005 68 207 4.0 10.0 0.00 0.00 0.00 72 1007.8
20260507204906 68 208 4.0 10.0 0.00 0.00 0.00 72 1007.8
20260507204805 68 209 4.0 10.0 0.00 0.00 0.00 71 1007.8
20260507204706 68 211 4.0 9.0 0.00 0.00 0.00 71 1007.7
20260507204608 68 209 4.0 9.0 0.00 0.00 0.00 71 1007.7
20260507204505 68 211 4.0 10.0 0.00 0.00 0.00 71 1007.7
20260507204405 68 211 3.0 10.0 0.00 0.00 0.00 71 1007.7
20260507204305 68 211 3.0 10.0 0.00 0.00 0.00 71 1007.7
20260507204205 68 210 3.0 10.0 0.00 0.00 0.00 71 1007.6
20260507204105 68 208 3.0 10.0 0.00 0.00 0.00 71 1007.6
20260507204005 68 208 3.0 10.0 0.00 0.00 0.00 71 1007.6
20260507203905 68 207 3.0 10.0 0.00 0.00 0.00 71 1007.7
20260507203805 68 205 3.0 10.0 0.00 0.00 0.00 71 1007.7
20260507203704 68 203 3.0 10.0 0.00 0.00 0.00 71 1007.7
20260507203604 68 204 3.0 10.0 0.00 0.00 0.00 71 1007.7
20260507203505 68 201 3.0 9.0 0.00 0.00 0.00 71 1007.8
20260507203405 68 201 3.0 9.0 0.00 0.00 0.00 71 1007.8
20260507203310 68 200 3.0 9.0 0.00 0.00 0.00 70 1007.8
20260507203207 68 199 3.0 9.0 0.00 0.00 0.00 70 1007.8
20260507203105 68 200 3.0 9.0 0.00 0.00 0.00 70 1007.8
20260507203005 68 197 3.0 8.0 0.00 0.00 0.00 70 1007.8
20260507202904 68 197 3.0 8.0 0.00 0.00 0.00 70 1007.8
20260507202805 68 198 3.0 8.0 0.00 0.00 0.00 70 1007.8
20260507202704 68 201 3.0 8.0 0.00 0.00 0.00 70 1007.8
20260507202604 68 201 3.0 8.0 0.00 0.00 0.00 70 1007.8
20260507202504 68 200 3.0 7.0 0.00 0.00 0.00 70 1007.8
20260507202405 68 201 3.0 7.0 0.00 0.00 0.00 70 1007.8
20260507202306 68 204 3.0 7.0 0.00 0.00 0.00 70 1007.8
20260507202205 68 206 3.0 7.0 0.00 0.00 0.00 70 1007.8
20260507202104 68 205 3.0 8.0 0.00 0.00 0.00 70 1007.8
20260507202005 68 206 3.0 8.0 0.00 0.00 0.00 70 1007.8
20260507201905 68 207 3.0 8.0 0.00 0.00 0.00 70 1007.8
20260507201806 68 208 3.0 8.0 0.00 0.00 0.00 70 1007.8
20260507201705 68 207 3.0 8.0 0.00 0.00 0.00 70 1007.8
20260507201606 68 205 3.0 8.0 0.00 0.00 0.00 70 1007.7
20260507201504 68 207 3.0 8.0 0.00 0.00 0.00 70 1007.7
20260507201404 68 206 3.0 8.0 0.00 0.00 0.00 70 1007.8
20260507201304 68 206 3.0 8.0 0.00 0.00 0.00 70 1007.7
20260507201204 68 203 3.0 8.0 0.00 0.00 0.00 70 1007.7
20260507201104 68 205 4.0 8.0 0.00 0.00 0.00 70 1007.9
20260507201004 68 205 4.0 8.0 0.00 0.00 0.00 70 1007.9
20260507200904 68 205 4.0 8.0 0.00 0.00 0.00 70 1007.9
20260507200804 68 207 4.0 8.0 0.00 0.00 0.00 69 1008.1
20260507200704 68 207 4.0 11.0 0.00 0.00 0.00 69 1008.1
20260507200604 68 213 5.0 11.0 0.00 0.00 0.00 69 1008.1
20260507200505 68 212 5.0 11.0 0.00 0.00 0.00 69 1008.1
20260507200405 68 213 5.0 11.0 0.00 0.00 0.00 69 1008.1
20260507200304 68 209 5.0 11.0 0.00 0.00 0.00 69 1008.0
20260507200206 68 212 5.0 11.0 0.00 0.00 0.00 69 1008.0
20260507200105 68 209 5.0 11.0 0.00 0.00 0.00 69 1007.9
20260507200005 68 206 5.0 11.0 0.00 0.00 0.00 69 1007.9
20260507195904 68 205 5.0 11.0 0.00 0.00 0.00 69 1007.9
20260507195804 68 203 5.0 11.0 0.00 0.00 0.00 69 1007.9
20260507195704 68 204 5.0 11.0 0.00 0.00 0.00 69 1007.9
20260507195604 68 201 5.0 11.0 0.00 0.00 0.00 69 1007.8
20260507195505 68 201 5.0 11.0 0.00 0.00 0.00 69 1007.8
20260507195404 68 200 5.0 11.0 0.00 0.00 0.00 69 1007.8
20260507195306 68 201 5.0 10.0 0.00 0.00 0.00 69 1007.7
20260507195205 68 201 4.0 10.0 0.00 0.00 0.00 69 1007.7
20260507195107 68 201 4.0 10.0 0.00 0.00 0.00 69 1007.7
20260507195006 68 205 4.0 11.0 0.00 0.00 0.00 69 1007.6
20260507194904 68 204 4.0 11.0 0.00 0.00 0.00 69 1007.6
20260507194804 68 204 4.0 11.0 0.00 0.00 0.00 69 1007.5
20260507194707 68 202 4.0 11.0 0.00 0.00 0.00 69 1007.5
20260507194606 68 201 4.0 11.0 0.00 0.00 0.00 69 1007.5
20260507194504 68 200 4.0 11.0 0.00 0.00 0.00 68 1007.5
20260507194404 68 199 4.0 11.0 0.00 0.00 0.00 68 1007.5
20260507194304 68 199 3.0 11.0 0.00 0.00 0.00 68 1007.5
20260507194205 68 199 3.0 11.0 0.00 0.00 0.00 68 1007.5
20260507194104 68 198 3.0 11.0 0.00 0.00 0.00 68 1007.5
20260507194004 68 197 3.0 11.0 0.00 0.00 0.00 68 1007.4
20260507193904 68 196 3.0 10.0 0.00 0.00 0.00 68 1007.4
20260507193804 68 197 3.0 10.0 0.00 0.00 0.00 68 1007.5
20260507193704 68 200 3.0 10.0 0.00 0.00 0.00 68 1007.4
20260507193604 68 202 3.0 10.0 0.00 0.00 0.00 68 1007.4
20260507193504 68 202 3.0 10.0 0.00 0.00 0.00 68 1007.5
20260507193405 68 203 3.0 10.0 0.00 0.00 0.00 68 1007.5
20260507193304 68 206 3.0 8.0 0.00 0.00 0.00 67 1007.5
20260507193206 68 205 3.0 8.0 0.00 0.00 0.00 67 1007.4
20260507193104 68 204 3.0 8.0 0.00 0.00 0.00 67 1007.4
20260507193005 68 205 3.0 9.0 0.00 0.00 0.00 67 1007.4
20260507192904 68 206 3.0 9.0 0.00 0.00 0.00 67 1007.4
20260507192804 68 207 3.0 9.0 0.00 0.00 0.00 67 1007.4
20260507192704 68 205 3.0 9.0 0.00 0.00 0.00 67 1007.4
20260507192604 68 201 3.0 9.0 0.00 0.00 0.00 67 1007.4
20260507192505 68 199 3.0 9.0 0.00 0.00 0.00 67 1007.3
20260507192404 68 198 3.0 9.0 0.00 0.00 0.00 67 1007.3
20260507192306 68 197 3.0 9.0 0.00 0.00 0.00 67 1007.3
20260507192204 68 197 3.0 9.0 0.00 0.00 0.00 67 1007.3
20260507192104 68 200 3.0 9.0 0.00 0.00 0.00 67 1007.3
20260507192004 68 196 3.0 7.0 0.00 0.00 0.00 67 1007.3
20260507191904 68 196 3.0 7.0 0.00 0.00 0.00 67 1007.3
20260507191804 68 196 3.0 7.0 0.00 0.00 0.00 67 1007.3
20260507191704 68 197 3.0 7.0 0.00 0.00 0.00 67 1007.3
20260507191604 68 199 3.0 7.0 0.00 0.00 0.00 67 1007.3
20260507191504 68 201 3.0 7.0 0.00 0.00 0.00 67 1007.3
20260507191404 68 202 3.0 7.0 0.00 0.00 0.00 67 1007.4
20260507191304 69 201 3.0 7.0 0.00 0.00 0.00 67 1007.4
20260507191205 69 201 3.0 7.0 0.00 0.00 0.00 66 1007.4
20260507191104 69 200 3.0 7.0 0.00 0.00 0.00 66 1007.4
20260507191004 69 202 3.0 7.0 0.00 0.00 0.00 66 1007.4
20260507190904 69 202 3.0 7.0 0.00 0.00 0.00 66 1007.3
20260507190804 69 204 3.0 7.0 0.00 0.00 0.00 66 1007.3
20260507190704 69 203 4.0 7.0 0.00 0.00 0.00 66 1007.3
20260507190604 69 203 4.0 7.0 0.00 0.00 0.00 66 1007.3
20260507190508 69 204 4.0 7.0 0.00 0.00 0.00 66 1007.3
20260507190404 69 198 4.0 10.0 0.00 0.00 0.00 66 1007.3
20260507190305 69 197 4.0 10.0 0.00 0.00 0.00 66 1007.3
20260507190203 69 201 5.0 10.0 0.00 0.00 0.00 66 1007.3
20260507190104 69 200 5.0 10.0 0.00 0.00 0.00 66 1007.2
20260507190005 69 200 5.0 10.0 0.00 0.00 0.00 66 1007.2
20260507185904 69 201 5.0 10.0 0.00 0.00 0.00 66 1007.2
20260507185804 69 203 5.0 10.0 0.00 0.00 0.00 66 1007.2
20260507185704 69 202 5.0 10.0 0.00 0.00 0.00 66 1007.2
20260507185604 69 205 5.0 10.0 0.00 0.00 0.00 66 1007.1
20260507185505 69 204 5.0 10.0 0.00 0.00 0.00 65 1007.1
20260507185404 69 207 5.0 10.0 0.00 0.00 0.00 65 1007.1
20260507185305 69 208 6.0 10.0 0.00 0.00 0.00 65 1007.0
20260507185204 69 204 6.0 11.0 0.00 0.00 0.00 65 1007.0
20260507185104 69 204 6.0 11.0 0.00 0.00 0.00 65 1007.0
20260507185006 69 202 6.0 11.0 0.00 0.00 0.00 65 1007.0
20260507184904 69 202 6.0 11.0 0.00 0.00 0.00 65 1007.0
20260507184804 69 200 6.0 11.0 0.00 0.00 0.00 65 1007.0
20260507184706 69 202 6.0 11.0 0.00 0.00 0.00 65 1007.0
20260507184604 69 200 6.0 14.0 0.00 0.00 0.00 66 1007.0
20260507184504 69 200 6.0 14.0 0.00 0.00 0.00 66 1007.0
20260507184404 69 202 6.0 14.0 0.00 0.00 0.00 66 1007.0
20260507184304 69 202 6.0 14.0 0.00 0.00 0.00 66 1007.0
20260507184203 69 202 6.0 14.0 0.00 0.00 0.00 65 1007.0
20260507184104 69 203 6.0 14.0 0.00 0.00 0.00 65 1006.9
20260507184004 69 204 6.0 14.0 0.00 0.00 0.00 65 1006.9
20260507183904 69 204 6.0 14.0 0.00 0.00 0.00 65 1006.8
20260507183804 69 207 6.0 14.0 0.00 0.00 0.00 65 1006.8
20260507183705 69 206 6.0 14.0 0.00 0.00 0.00 65 1006.8
20260507183605 69 205 6.0 14.0 0.00 0.00 0.00 66 1006.7
20260507183505 69 204 6.0 14.0 0.00 0.00 0.00 66 1006.8
20260507183405 69 202 6.0 14.0 0.00 0.00 0.00 66 1006.8
20260507183305 69 203 6.0 14.0 0.00 0.00 0.00 66 1006.7
20260507183205 69 203 6.0 14.0 0.00 0.00 0.00 66 1006.7
20260507183105 69 204 6.0 14.0 0.00 0.00 0.00 66 1006.7
20260507183006 69 204 6.0 14.0 0.00 0.00 0.00 65 1006.7
20260507182905 69 202 6.0 14.0 0.00 0.00 0.00 65 1006.7
20260507182805 69 200 6.0 13.0 0.00 0.00 0.00 65 1006.7
20260507182705 69 200 6.0 19.0 0.00 0.00 0.00 65 1006.7
20260507182605 69 200 6.0 19.0 0.00 0.00 0.00 65 1006.7
20260507182505 69 200 6.0 19.0 0.00 0.00 0.00 65 1006.7
20260507182404 69 199 6.0 19.0 0.00 0.00 0.00 65 1006.7
20260507182307 69 198 6.0 19.0 0.00 0.00 0.00 65 1006.7
20260507182205 69 198 6.0 19.0 0.00 0.00 0.00 65 1006.7
20260507182105 69 194 6.0 19.0 0.00 0.00 0.00 65 1006.7
20260507182005 69 194 6.0 19.0 0.00 0.00 0.00 65 1006.7
20260507181908 69 195 6.0 19.0 0.00 0.00 0.00 65 1006.7
20260507181804 69 195 6.0 19.0 0.00 0.00 0.00 65 1006.7
20260507181706 69 194 6.0 16.0 0.00 0.00 0.00 65 1006.7
20260507181606 69 195 6.0 16.0 0.00 0.00 0.00 65 1006.7
20260507181506 69 195 6.0 16.0 0.00 0.00 0.00 64 1006.8
20260507181405 69 197 6.0 16.0 0.00 0.00 0.00 65 1006.8
20260507181305 69 196 6.0 12.0 0.00 0.00 0.00 65 1006.8
20260507181205 69 198 6.0 16.0 0.00 0.00 0.00 65 1006.8
20260507181105 69 200 6.0 16.0 0.00 0.00 0.00 65 1006.8
20260507181005 69 199 6.0 16.0 0.00 0.00 0.00 65 1006.9
20260507180905 69 198 6.0 16.0 0.00 0.00 0.00 65 1006.9
20260507180805 69 198 6.0 16.0 0.00 0.00 0.00 65 1006.9
20260507180705 69 198 6.0 16.0 0.00 0.00 0.00 65 1006.9
20260507180605 69 199 6.0 16.0 0.00 0.00 0.00 65 1006.9
20260507180508 69 200 6.0 16.0 0.00 0.00 0.00 65 1006.9
20260507180405 69 197 6.0 16.0 0.00 0.00 0.00 66 1006.9
20260507180304 69 197 6.0 16.0 0.00 0.00 0.00 66 1006.7
20260507180205 69 196 6.0 15.0 0.00 0.00 0.00 66 1006.7
20260507180106 69 197 6.0 15.0 0.00 0.00 0.00 66 1006.7
20260507180005 69 198 6.0 15.0 0.00 0.00 0.00 66 1006.6
20260507175905 69 200 6.0 15.0 0.00 0.00 0.00 66 1006.6
20260507175805 69 200 6.0 15.0 0.00 0.00 0.00 66 1006.6
20260507175705 69 200 6.0 15.0 0.00 0.00 0.00 66 1006.7
20260507175605 69 198 6.0 15.0 0.00 0.00 0.00 66 1006.7
20260507175505 69 196 6.0 15.0 0.00 0.00 0.00 66 1006.8
20260507175405 69 199 6.0 15.0 0.00 0.00 0.00 66 1006.9
20260507175307 69 199 6.0 15.0 0.00 0.00 0.00 66 1006.9
20260507175206 69 197 6.0 16.0 0.00 0.00 0.00 66 1006.8
20260507175109 69 198 6.0 16.0 0.00 0.00 0.00 66 1006.8
20260507175007 69 200 6.0 16.0 0.00 0.00 0.00 66 1006.8
20260507174904 69 196 6.0 16.0 0.00 0.00 0.00 66 1006.8
20260507174808 69 196 6.0 16.0 0.00 0.00 0.00 66 1006.8
20260507174705 69 195 6.0 16.0 0.00 0.00 0.00 66 1006.9
20260507174612 69 195 6.0 16.0 0.00 0.00 0.00 66 1006.9
20260507174504 69 195 6.0 16.0 0.00 0.00 0.00 66 1006.9
20260507174405 69 195 7.0 16.0 0.00 0.00 0.00 66 1006.8
20260507174305 69 197 7.0 16.0 0.00 0.00 0.00 65 1006.8
20260507174205 69 200 7.0 14.0 0.00 0.00 0.00 65 1006.9
20260507174105 69 199 7.0 14.0 0.00 0.00 0.00 65 1007.0
20260507174006 69 198 7.0 14.0 0.00 0.00 0.00 65 1007.0
20260507173905 69 203 7.0 14.0 0.00 0.00 0.00 65 1006.8
20260507173805 69 204 7.0 14.0 0.00 0.00 0.00 65 1006.8
20260507173704 69 204 7.0 14.0 0.00 0.00 0.00 65 1006.9
20260507173604 69 206 7.0 14.0 0.00 0.00 0.00 65 1007.0
20260507173505 69 208 7.0 14.0 0.00 0.00 0.00 65 1007.0
20260507173415 69 207 7.0 14.0 0.00 0.00 0.00 65 1007.0
20260507173307 69 204 7.0 14.0 0.00 0.00 0.00 65 1007.0
20260507173205 69 203 7.0 14.0 0.00 0.00 0.00 65 1007.0
20260507173105 69 206 7.0 15.0 0.00 0.00 0.00 65 1006.9
20260507173005 69 207 7.0 15.0 0.00 0.00 0.00 65 1006.9
20260507172904 69 205 7.0 15.0 0.00 0.00 0.00 65 1006.9
20260507172806 69 204 7.0 15.0 0.00 0.00 0.00 65 1007.0
20260507172704 69 204 7.0 15.0 0.00 0.00 0.00 65 1007.0
20260507172604 69 203 7.0 15.0 0.00 0.00 0.00 65 1007.1
20260507172504 69 199 7.0 15.0 0.00 0.00 0.00 65 1007.1
20260507172307 69 203 7.0 15.0 0.00 0.00 0.00 65 1007.2
20260507172204 69 204 7.0 15.0 0.00 0.00 0.00 65 1007.2
20260507172106 69 201 7.0 13.0 0.00 0.00 0.00 65 1007.2
20260507172007 69 200 7.0 13.0 0.00 0.00 0.00 65 1007.2
20260507171905 69 198 7.0 13.0 0.00 0.00 0.00 65 1007.1
20260507171804 69 198 7.0 13.0 0.00 0.00 0.00 65 1007.0
20260507171706 69 199 7.0 13.0 0.00 0.00 0.00 65 1007.0
20260507171608 69 201 7.0 16.0 0.00 0.00 0.00 65 1007.0
20260507171504 70 204 7.0 16.0 0.00 0.00 0.00 65 1007.0
20260507171404 70 200 7.0 16.0 0.00 0.00 0.00 65 1006.9
20260507171305 70 198 7.0 16.0 0.00 0.00 0.00 65 1006.8
20260507171204 70 198 7.0 16.0 0.00 0.00 0.00 65 1006.8
20260507171104 70 197 7.0 16.0 0.00 0.00 0.00 64 1006.9
20260507171005 70 197 7.0 16.0 0.00 0.00 0.00 64 1006.8
20260507170904 70 199 7.0 16.0 0.00 0.00 0.00 64 1006.8
20260507170805 70 199 7.0 16.0 0.00 0.00 0.00 64 1006.8
20260507170704 70 199 7.0 16.0 0.00 0.00 0.00 64 1006.8
20260507170607 70 200 7.0 15.0 0.00 0.00 0.00 64 1006.9
20260507170505 70 197 7.0 17.0 0.00 0.00 0.00 64 1006.9
20260507170405 70 199 7.0 17.0 0.00 0.00 0.00 64 1006.9
20260507170306 70 201 7.0 17.0 0.00 0.00 0.00 64 1006.9
20260507170205 70 199 7.0 17.0 0.00 0.00 0.00 63 1006.9
20260507170105 70 201 7.0 17.0 0.00 0.00 0.00 63 1006.8
20260507170005 70 202 7.0 17.0 0.00 0.00 0.00 63 1006.7
20260507165905 70 200 7.0 17.0 0.00 0.00 0.00 63 1006.7
20260507165804 70 202 7.0 17.0 0.00 0.00 0.00 63 1006.7
20260507165604 70 199 7.0 17.0 0.00 0.00 0.00 63 1006.5
20260507165505 70 202 7.0 15.0 0.00 0.00 0.00 63 1006.5
20260507165404 70 202 7.0 15.0 0.00 0.00 0.00 63 1006.5
20260507165306 70 200 7.0 15.0 0.00 0.00 0.00 63 1006.4
20260507165204 70 204 7.0 15.0 0.00 0.00 0.00 63 1006.5
20260507165105 70 204 7.0 15.0 0.00 0.00 0.00 63 1006.5
20260507165005 70 202 7.0 15.0 0.00 0.00 0.00 63 1006.4
20260507164911 70 203 7.0 15.0 0.00 0.00 0.00 62 1006.4
20260507164805 70 202 7.0 15.0 0.00 0.00 0.00 62 1006.4
20260507164705 70 203 7.0 15.0 0.00 0.00 0.00 62 1006.4
20260507164605 70 205 7.0 15.0 0.00 0.00 0.00 62 1006.4
20260507164504 70 205 7.0 15.0 0.00 0.00 0.00 62 1006.3
20260507164404 70 203 8.0 16.0 0.00 0.00 0.00 62 1006.3
20260507164304 70 206 8.0 16.0 0.00 0.00 0.00 62 1006.3
20260507164205 70 201 8.0 16.0 0.00 0.00 0.00 62 1006.3
20260507164104 70 201 8.0 16.0 0.00 0.00 0.00 62 1006.3
20260507164004 70 205 8.0 16.0 0.00 0.00 0.00 62 1006.3
20260507163904 70 207 9.0 19.0 0.00 0.00 0.00 62 1006.2
20260507163804 70 205 9.0 19.0 0.00 0.00 0.00 62 1006.2
20260507163703 70 200 9.0 19.0 0.00 0.00 0.00 61 1006.3
20260507163604 70 200 9.0 19.0 0.00 0.00 0.00 61 1006.3
20260507163504 70 201 9.0 19.0 0.00 0.00 0.00 61 1006.2
20260507163407 70 204 9.0 19.0 0.00 0.00 0.00 61 1006.3
20260507163305 70 205 9.0 19.0 0.00 0.00 0.00 61 1006.3
20260507163210 71 207 9.0 19.0 0.00 0.00 0.00 61 1006.3
20260507163106 71 207 9.0 19.0 0.00 0.00 0.00 61 1006.3
20260507163004 71 206 9.0 19.0 0.00 0.00 0.00 61 1006.2
20260507162904 71 204 9.0 18.0 0.00 0.00 0.00 61 1006.3
20260507162804 71 208 9.0 18.0 0.00 0.00 0.00 62 1006.3
20260507162704 71 208 9.0 18.0 0.00 0.00 0.00 62 1006.3
20260507162604 71 206 9.0 18.0 0.00 0.00 0.00 62 1006.3
20260507162504 71 206 9.0 18.0 0.00 0.00 0.00 62 1006.3
20260507162404 71 202 8.0 18.0 0.00 0.00 0.00 62 1006.2
20260507162307 71 200 8.0 18.0 0.00 0.00 0.00 61 1006.2
20260507162205 71 199 8.0 18.0 0.00 0.00 0.00 61 1006.2
20260507162105 71 195 8.0 18.0 0.00 0.00 0.00 61 1006.0
20260507162006 71 195 8.0 18.0 0.00 0.00 0.00 61 1006.0
20260507161905 71 196 9.0 18.0 0.00 0.00 0.00 61 1006.2
20260507161805 71 196 9.0 18.0 0.00 0.00 0.00 61 1006.2
20260507161704 71 197 9.0 18.0 0.00 0.00 0.00 61 1006.2
20260507161605 71 197 9.0 18.0 0.00 0.00 0.00 61 1006.1
20260507161504 71 195 9.0 18.0 0.00 0.00 0.00 61 1006.1
20260507161404 71 197 9.0 18.0 0.00 0.00 0.00 61 1006.2
20260507161304 71 197 9.0 20.0 0.00 0.00 0.00 61 1006.2
20260507161204 71 194 9.0 20.0 0.00 0.00 0.00 61 1006.1
20260507161104 71 197 9.0 20.0 0.00 0.00 0.00 61 1006.2
20260507161004 71 194 9.0 20.0 0.00 0.00 0.00 61 1006.2
20260507160904 71 192 8.0 20.0 0.00 0.00 0.00 61 1006.2
20260507160804 71 191 8.0 20.0 0.00 0.00 0.00 60 1006.2
20260507160705 71 189 8.0 20.0 0.00 0.00 0.00 60 1006.2
20260507160605 71 190 8.0 20.0 0.00 0.00 0.00 60 1006.3
20260507160506 71 190 8.0 20.0 0.00 0.00 0.00 60 1006.3
20260507160408 71 192 8.0 20.0 0.00 0.00 0.00 60 1006.3
20260507160306 71 191 8.0 20.0 0.00 0.00 0.00 60 1006.4
20260507160205 72 194 9.0 20.0 0.00 0.00 0.00 59 1006.4
20260507160105 72 196 9.0 20.0 0.00 0.00 0.00 59 1006.4
20260507160005 72 197 8.0 20.0 0.00 0.00 0.00 59 1006.4
20260507155904 72 198 8.0 20.0 0.00 0.00 0.00 59 1006.3
20260507155804 72 201 8.0 20.0 0.00 0.00 0.00 59 1006.3
20260507155714 72 201 8.0 20.0 0.00 0.00 0.00 59 1006.3
20260507155605 72 202 8.0 20.0 0.00 0.00 0.00 59 1006.3
20260507155506 72 199 8.0 20.0 0.00 0.00 0.00 59 1006.3
20260507155405 72 199 8.0 20.0 0.00 0.00 0.00 59 1006.3
20260507155306 72 197 8.0 16.0 0.00 0.00 0.00 59 1006.3
20260507155205 72 197 8.0 16.0 0.00 0.00 0.00 59 1006.3
20260507155105 72 195 8.0 16.0 0.00 0.00 0.00 58 1006.2
20260507155007 72 196 9.0 16.0 0.00 0.00 0.00 58 1006.2
20260507154905 72 195 9.0 17.0 0.00 0.00 0.00 58 1006.2
20260507154806 72 195 9.0 18.0 0.00 0.00 0.00 58 1006.3
20260507154707 72 195 9.0 18.0 0.00 0.00 0.00 58 1006.3
20260507154606 72 193 9.0 18.0 0.00 0.00 0.00 59 1006.3
20260507154505 72 194 9.0 20.0 0.00 0.00 0.00 59 1006.3
20260507154404 72 191 9.0 20.0 0.00 0.00 0.00 59 1006.3
20260507154304 72 193 9.0 20.0 0.00 0.00 0.00 59 1006.2
20260507154204 72 193 9.0 20.0 0.00 0.00 0.00 59 1006.2
20260507154104 72 192 9.0 20.0 0.00 0.00 0.00 58 1006.2
20260507154005 72 193 9.0 20.0 0.00 0.00 0.00 58 1006.0
20260507153904 72 194 9.0 20.0 0.00 0.00 0.00 58 1006.0
20260507153805 72 191 9.0 20.0 0.00 0.00 0.00 58 1006.0
20260507153705 72 191 9.0 20.0 0.00 0.00 0.00 58 1006.0
20260507153604 72 192 9.0 20.0 0.00 0.00 0.00 58 1006.1
20260507153505 72 194 10.0 21.0 0.00 0.00 0.00 58 1006.2
20260507153406 72 194 10.0 21.0 0.00 0.00 0.00 58 1006.2
20260507153312 72 195 10.0 21.0 0.00 0.00 0.00 58 1006.2
20260507153206 72 196 10.0 21.0 0.00 0.00 0.00 57 1006.2
20260507153106 72 195 10.0 21.0 0.00 0.00 0.00 57 1006.2
20260507153005 73 196 10.0 21.0 0.00 0.00 0.00 57 1006.2
20260507152904 73 196 10.0 21.0 0.00 0.00 0.00 57 1006.2
20260507152806 73 196 10.0 21.0 0.00 0.00 0.00 57 1006.0
20260507152704 73 197 10.0 21.0 0.00 0.00 0.00 57 1006.0
20260507152604 73 197 10.0 21.0 0.00 0.00 0.00 56 1006.0
20260507152504 73 199 10.0 21.0 0.00 0.00 0.00 56 1006.2
20260507152404 73 200 10.0 19.0 0.00 0.00 0.00 56 1006.2
20260507152306 73 201 10.0 19.0 0.00 0.00 0.00 56 1006.2
20260507152204 73 199 10.0 19.0 0.00 0.00 0.00 56 1006.2
20260507152105 73 202 10.0 19.0 0.00 0.00 0.00 56 1006.2
20260507152006 73 200 10.0 19.0 0.00 0.00 0.00 56 1006.1
20260507151905 73 201 10.0 19.0 0.00 0.00 0.00 56 1006.0
20260507151804 73 199 10.0 19.0 0.00 0.00 0.00 56 1006.0
20260507151704 73 199 10.0 19.0 0.00 0.00 0.00 56 1006.0
20260507151605 73 199 10.0 18.0 0.00 0.00 0.00 56 1006.0
20260507151505 73 198 9.0 18.0 0.00 0.00 0.00 56 1006.1
20260507151404 73 197 9.0 18.0 0.00 0.00 0.00 56 1006.2
20260507151304 73 195 9.0 19.0 0.00 0.00 0.00 55 1006.2
20260507151205 73 198 9.0 19.0 0.00 0.00 0.00 55 1006.1
20260507151105 73 197 9.0 19.0 0.00 0.00 0.00 55 1006.1
20260507151005 73 197 9.0 19.0 0.00 0.00 0.00 56 1006.2
20260507150905 73 197 9.0 19.0 0.00 0.00 0.00 55 1006.0
20260507150805 73 199 9.0 19.0 0.00 0.00 0.00 55 1006.0
20260507150705 73 198 9.0 19.0 0.00 0.00 0.00 56 1006.0
20260507150604 73 198 9.0 19.0 0.00 0.00 0.00 56 1006.0
20260507150513 73 198 9.0 19.0 0.00 0.00 0.00 56 1006.1
20260507150405 73 199 9.0 19.0 0.00 0.00 0.00 56 1006.0
20260507150304 73 202 9.0 16.0 0.00 0.00 0.00 56 1006.0
20260507150204 73 200 9.0 16.0 0.00 0.00 0.00 56 1006.1
20260507150106 73 199 9.0 17.0 0.00 0.00 0.00 56 1006.2
20260507150005 73 198 9.0 17.0 0.00 0.00 0.00 56 1006.2
20260507145904 73 199 9.0 17.0 0.00 0.00 0.00 55 1006.2
20260507145804 73 198 9.0 23.0 0.00 0.00 0.00 55 1006.2
20260507145704 73 200 9.0 23.0 0.00 0.00 0.00 55 1006.2
20260507145604 73 199 9.0 23.0 0.00 0.00 0.00 55 1006.3
20260507145504 73 199 9.0 23.0 0.00 0.00 0.00 55 1006.3
20260507145404 73 199 9.0 23.0 0.00 0.00 0.00 56 1006.3
20260507145306 73 197 9.0 23.0 0.00 0.00 0.00 55 1006.3
20260507145204 73 198 9.0 23.0 0.00 0.00 0.00 55 1006.1
20260507145104 73 196 9.0 23.0 0.00 0.00 0.00 55 1006.3
20260507145013 73 193 9.0 23.0 0.00 0.00 0.00 55 1006.3
20260507144912 73 191 9.0 23.0 0.00 0.00 0.00 55 1006.4
20260507144806 73 194 9.0 23.0 0.00 0.00 0.00 55 1006.4
20260507144706 73 194 9.0 22.0 0.00 0.00 0.00 55 1006.4
20260507144607 74 195 10.0 19.0 0.00 0.00 0.00 55 1006.3
20260507144505 74 197 10.0 19.0 0.00 0.00 0.00 54 1006.3
20260507144405 74 196 10.0 19.0 0.00 0.00 0.00 54 1006.3
20260507144304 74 195 10.0 18.0 0.00 0.00 0.00 54 1006.2
20260507144204 74 194 10.0 20.0 0.00 0.00 0.00 54 1006.2
20260507144104 74 197 10.0 20.0 0.00 0.00 0.00 54 1006.3
20260507144005 74 201 10.0 21.0 0.00 0.00 0.00 53 1006.3
20260507143904 74 202 10.0 23.0 0.00 0.00 0.00 53 1006.3
20260507143804 74 197 10.0 23.0 0.00 0.00 0.00 53 1006.3
20260507143706 74 196 10.0 23.0 0.00 0.00 0.00 53 1006.3
20260507143605 74 194 10.0 23.0 0.00 0.00 0.00 53 1006.2
20260507143509 74 191 10.0 23.0 0.00 0.00 0.00 53 1006.2
20260507143408 74 192 10.0 23.0 0.00 0.00 0.00 53 1006.2
20260507143309 74 192 10.0 23.0 0.00 0.00 0.00 53 1006.3
20260507143208 74 195 9.0 23.0 0.00 0.00 0.00 53 1006.3
20260507143115 74 195 9.0 23.0 0.00 0.00 0.00 53 1006.4
20260507143004 74 193 9.0 23.0 0.00 0.00 0.00 53 1006.3
20260507142904 74 194 9.0 20.0 0.00 0.00 0.00 53 1006.3
20260507142804 74 196 9.0 19.0 0.00 0.00 0.00 53 1006.4
20260507142704 74 197 9.0 19.0 0.00 0.00 0.00 53 1006.4
20260507142604 74 201 9.0 19.0 0.00 0.00 0.00 53 1006.4
20260507142504 74 200 9.0 19.0 0.00 0.00 0.00 53 1006.4
20260507142404 74 199 9.0 17.0 0.00 0.00 0.00 53 1006.4
20260507142306 74 201 9.0 17.0 0.00 0.00 0.00 53 1006.4
20260507142204 74 202 9.0 17.0 0.00 0.00 0.00 53 1006.4
20260507142105 74 202 9.0 17.0 0.00 0.00 0.00 53 1006.5
20260507142006 74 199 9.0 17.0 0.00 0.00 0.00 53 1006.5
20260507141906 74 198 9.0 17.0 0.00 0.00 0.00 53 1006.5
20260507141805 74 195 9.0 17.0 0.00 0.00 0.00 53 1006.6
20260507141707 74 194 9.0 15.0 0.00 0.00 0.00 52 1006.6
20260507141605 74 192 10.0 23.0 0.00 0.00 0.00 52 1006.7
20260507141505 74 194 10.0 23.0 0.00 0.00 0.00 52 1006.8
20260507141404 74 195 10.0 23.0 0.00 0.00 0.00 52 1006.8
20260507141304 74 197 10.0 23.0 0.00 0.00 0.00 52 1006.8
20260507141204 74 195 10.0 23.0 0.00 0.00 0.00 52 1006.9
20260507141104 74 196 10.0 23.0 0.00 0.00 0.00 52 1006.9
20260507141004 74 201 10.0 23.0 0.00 0.00 0.00 52 1007.1
20260507140904 74 199 10.0 23.0 0.00 0.00 0.00 52 1007.1
20260507140804 74 199 10.0 23.0 0.00 0.00 0.00 52 1007.0
20260507140703 74 200 10.0 23.0 0.00 0.00 0.00 52 1007.0
20260507140605 74 198 10.0 23.0 0.00 0.00 0.00 52 1007.0
20260507140505 74 198 10.0 23.0 0.00 0.00 0.00 52 1006.9
20260507140404 74 198 10.0 23.0 0.00 0.00 0.00 52 1006.9
20260507140304 74 196 10.0 23.0 0.00 0.00 0.00 52 1006.9
20260507140204 74 195 10.0 23.0 0.00 0.00 0.00 51 1007.0
20260507140106 74 195 10.0 23.0 0.00 0.00 0.00 51 1007.0
20260507140006 74 194 10.0 23.0 0.00 0.00 0.00 50 1006.9
20260507135904 74 195 10.0 23.0 0.00 0.00 0.00 50 1006.9
20260507135804 74 197 10.0 23.0 0.00 0.00 0.00 50 1007.2
20260507135704 74 196 10.0 23.0 0.00 0.00 0.00 50 1007.3
20260507135604 74 197 10.0 23.0 0.00 0.00 0.00 50 1007.3
20260507135505 74 195 10.0 23.0 0.00 0.00 0.00 50 1007.2
20260507135404 74 193 10.0 23.0 0.00 0.00 0.00 50 1007.3
20260507135306 74 195 10.0 23.0 0.00 0.00 0.00 50 1007.3
20260507135204 74 194 10.0 23.0 0.00 0.00 0.00 50 1007.4
20260507135104 74 191 10.0 23.0 0.00 0.00 0.00 50 1007.4
20260507135005 74 192 10.0 23.0 0.00 0.00 0.00 50 1007.4
20260507134906 74 193 10.0 23.0 0.00 0.00 0.00 50 1007.3
20260507134806 74 192 10.0 23.0 0.00 0.00 0.00 50 1007.3
20260507134705 74 193 10.0 23.0 0.00 0.00 0.00 50 1007.3
20260507134611 74 193 10.0 23.0 0.00 0.00 0.00 50 1007.3
20260507134504 74 194 10.0 23.0 0.00 0.00 0.00 50 1007.3
20260507134405 74 195 10.0 20.0 0.00 0.00 0.00 50 1007.2
20260507134305 74 194 10.0 20.0 0.00 0.00 0.00 50 1007.2
20260507134205 74 194 9.0 22.0 0.00 0.00 0.00 50 1007.4
20260507134105 74 198 9.0 22.0 0.00 0.00 0.00 50 1007.3
20260507134005 74 197 9.0 22.0 0.00 0.00 0.00 50 1007.3
20260507133905 74 199 9.0 22.0 0.00 0.00 0.00 50 1007.3
20260507133804 74 200 8.0 22.0 0.00 0.00 0.00 50 1007.3
20260507133705 74 199 8.0 22.0 0.00 0.00 0.00 50 1007.4
20260507133605 75 200 8.0 22.0 0.00 0.00 0.00 50 1007.4
20260507133505 75 201 8.0 22.0 0.00 0.00 0.00 50 1007.4
20260507133405 75 202 7.0 22.0 0.00 0.00 0.00 50 1007.5
20260507133304 75 202 7.0 22.0 0.00 0.00 0.00 50 1007.5
20260507133206 75 203 7.0 20.0 0.00 0.00 0.00 51 1007.6
20260507133106 75 202 7.0 20.0 0.00 0.00 0.00 50 1007.5
20260507133011 75 199 7.0 19.0 0.00 0.00 0.00 50 1007.5
20260507132904 76 195 8.0 19.0 0.00 0.00 0.00 49 1007.6
20260507132805 76 195 8.0 19.0 0.00 0.00 0.00 49 1007.6
20260507132704 76 194 8.0 19.0 0.00 0.00 0.00 49 1007.6
20260507132605 76 195 8.0 19.0 0.00 0.00 0.00 49 1007.7
20260507132506 76 195 8.0 19.0 0.00 0.00 0.00 48 1007.7
20260507132404 76 194 9.0 18.0 0.00 0.00 0.00 48 1007.6
20260507132307 76 192 9.0 20.0 0.00 0.00 0.00 48 1007.6
20260507132204 76 191 9.0 20.0 0.00 0.00 0.00 48 1007.6
20260507132108 76 192 9.0 21.0 0.00 0.00 0.00 48 1007.6
20260507132008 76 195 9.0 21.0 0.00 0.00 0.00 48 1007.6
20260507131906 76 193 9.0 21.0 0.00 0.00 0.00 48 1007.6
20260507131806 76 193 10.0 21.0 0.00 0.00 0.00 48 1007.6
20260507131706 76 194 10.0 21.0 0.00 0.00 0.00 48 1007.6
20260507131614 76 194 10.0 21.0 0.00 0.00 0.00 48 1007.6
20260507131505 76 192 10.0 21.0 0.00 0.00 0.00 48 1007.6
20260507131405 76 196 10.0 21.0 0.00 0.00 0.00 47 1007.5
20260507131304 76 196 10.0 21.0 0.00 0.00 0.00 47 1007.6
20260507131205 76 195 10.0 21.0 0.00 0.00 0.00 46 1007.6
20260507131104 76 196 10.0 20.0 0.00 0.00 0.00 46 1007.5
20260507131005 76 195 10.0 23.0 0.00 0.00 0.00 46 1007.5
20260507130905 76 196 9.0 23.0 0.00 0.00 0.00 46 1007.4
20260507130804 76 196 9.0 23.0 0.00 0.00 0.00 46 1007.4
20260507130704 76 196 9.0 23.0 0.00 0.00 0.00 46 1007.4
20260507130604 76 195 9.0 23.0 0.00 0.00 0.00 46 1007.5
20260507130505 76 193 9.0 23.0 0.00 0.00 0.00 46 1007.5
20260507130405 76 191 8.0 23.0 0.00 0.00 0.00 45 1007.5
20260507130305 76 190 8.0 23.0 0.00 0.00 0.00 45 1007.5
20260507130206 76 192 8.0 23.0 0.00 0.00 0.00 45 1007.5
20260507130106 77 191 8.0 23.0 0.00 0.00 0.00 46 1007.6
20260507130005 77 192 8.0 19.0 0.00 0.00 0.00 46 1007.6
20260507125905 77 193 8.0 20.0 0.00 0.00 0.00 46 1007.6
20260507125804 77 192 8.0 20.0 0.00 0.00 0.00 46 1007.7
20260507125704 77 191 8.0 20.0 0.00 0.00 0.00 45 1007.7
20260507125605 77 192 8.0 21.0 0.00 0.00 0.00 45 1007.6
20260507125505 77 193 8.0 21.0 0.00 0.00 0.00 45 1007.8
20260507125405 77 193 8.0 21.0 0.00 0.00 0.00 45 1007.8
20260507125306 77 194 8.0 21.0 0.00 0.00 0.00 44 1007.7
20260507125205 77 195 8.0 21.0 0.00 0.00 0.00 44 1007.6
20260507125105 77 196 8.0 21.0 0.00 0.00 0.00 44 1007.6
20260507124906 77 192 7.0 21.0 0.00 0.00 0.00 43 1007.5
20260507124806 77 195 7.0 21.0 0.00 0.00 0.00 43 1007.7
20260507124706 77 196 7.0 21.0 0.00 0.00 0.00 43 1007.7
20260507124606 78 196 7.0 18.0 0.00 0.00 0.00 43 1007.7
20260507124505 78 195 7.0 18.0 0.00 0.00 0.00 43 1007.6
20260507124405 78 196 6.0 18.0 0.00 0.00 0.00 43 1007.6
20260507124304 78 194 6.0 18.0 0.00 0.00 0.00 43 1007.7
20260507124205 78 193 6.0 16.0 0.00 0.00 0.00 43 1007.7
20260507124104 78 192 6.0 15.0 0.00 0.00 0.00 43 1007.7
20260507124004 78 194 6.0 15.0 0.00 0.00 0.00 43 1007.7
20260507123904 78 192 7.0 15.0 0.00 0.00 0.00 43 1007.7
20260507123804 77 190 7.0 15.0 0.00 0.00 0.00 44 1007.8
20260507123705 77 191 7.0 15.0 0.00 0.00 0.00 44 1007.8
20260507123604 77 189 7.0 15.0 0.00 0.00 0.00 44 1007.8
20260507123505 77 189 7.0 15.0 0.00 0.00 0.00 44 1007.7
20260507123407 77 188 7.0 15.0 0.00 0.00 0.00 44 1007.8
20260507123305 77 189 7.0 15.0 0.00 0.00 0.00 44 1007.8
20260507123205 77 189 7.0 15.0 0.00 0.00 0.00 44 1007.8
20260507123105 77 189 7.0 15.0 0.00 0.00 0.00 44 1007.8
20260507123004 77 190 7.0 15.0 0.00 0.00 0.00 44 1007.9
20260507122904 77 191 7.0 15.0 0.00 0.00 0.00 44 1007.9
20260507122804 77 190 7.0 15.0 0.00 0.00 0.00 44 1007.9
20260507122705 77 189 7.0 17.0 0.00 0.00 0.00 44 1007.8
20260507122604 77 188 7.0 17.0 0.00 0.00 0.00 43 1007.8
20260507122505 77 188 8.0 17.0 0.00 0.00 0.00 43 1007.7
20260507122404 77 188 8.0 17.0 0.00 0.00 0.00 42 1007.8
20260507122307 78 189 8.0 17.0 0.00 0.00 0.00 42 1007.8
20260507122205 78 190 8.0 17.0 0.00 0.00 0.00 42 1007.8
20260507122104 78 191 8.0 17.0 0.00 0.00 0.00 41 1007.8
20260507122006 78 188 8.0 17.0 0.00 0.00 0.00 41 1007.9
20260507121907 78 187 8.0 17.0 0.00 0.00 0.00 41 1008.0
20260507121804 78 187 8.0 17.0 0.00 0.00 0.00 41 1008.0
20260507121708 78 187 9.0 15.0 0.00 0.00 0.00 41 1008.0
20260507121606 78 187 9.0 22.0 0.00 0.00 0.00 40 1007.9
20260507121504 78 188 9.0 22.0 0.00 0.00 0.00 40 1007.9
20260507121404 78 188 9.0 22.0 0.00 0.00 0.00 40 1007.9
20260507121304 78 187 8.0 22.0 0.00 0.00 0.00 40 1007.9
20260507121204 77 188 8.0 22.0 0.00 0.00 0.00 40 1007.9
20260507121104 77 188 8.0 22.0 0.00 0.00 0.00 40 1007.8
20260507121005 78 189 8.0 22.0 0.00 0.00 0.00 40 1007.8
20260507120904 78 191 8.0 22.0 0.00 0.00 0.00 41 1007.8
20260507120805 78 192 8.0 22.0 0.00 0.00 0.00 40 1007.8
20260507120704 78 192 8.0 22.0 0.00 0.00 0.00 40 1007.8
20260507120604 78 194 8.0 18.0 0.00 0.00 0.00 40 1007.8
20260507120504 78 195 8.0 19.0 0.00 0.00 0.00 40 1007.8
20260507120404 78 195 8.0 19.0 0.00 0.00 0.00 40 1007.8
20260507120306 78 195 8.0 19.0 0.00 0.00 0.00 39 1007.9
20260507120205 78 196 8.0 19.0 0.00 0.00 0.00 38 1007.9
20260507120107 78 194 8.0 19.0 0.00 0.00 0.00 38 1007.8
20260507120013 78 195 8.0 19.0 0.00 0.00 0.00 38 1007.8
20260507115904 78 191 8.0 19.0 0.00 0.00 0.00 38 1007.7
20260507115804 78 192 8.0 20.0 0.00 0.00 0.00 38 1007.7
20260507115704 78 192 9.0 20.0 0.00 0.00 0.00 38 1007.7
20260507115604 78 192 9.0 20.0 0.00 0.00 0.00 37 1007.6
20260507115504 78 192 9.0 20.0 0.00 0.00 0.00 37 1007.6
20260507115404 78 193 9.0 20.0 0.00 0.00 0.00 37 1007.6
20260507115307 78 191 9.0 20.0 0.00 0.00 0.00 37 1007.8
20260507115204 78 190 9.0 20.0 0.00 0.00 0.00 38 1007.8
20260507115105 78 189 9.0 20.0 0.00 0.00 0.00 38 1007.9
20260507115007 78 188 9.0 20.0 0.00 0.00 0.00 38 1007.9
20260507114905 78 190 9.0 20.0 0.00 0.00 0.00 38 1008.0
20260507114812 78 190 9.0 19.0 0.00 0.00 0.00 38 1008.1
20260507114704 78 190 9.0 20.0 0.00 0.00 0.00 37 1008.1
20260507114605 78 190 9.0 20.0 0.00 0.00 0.00 36 1008.1
20260507114504 78 191 9.0 20.0 0.00 0.00 0.00 36 1007.9
20260507114404 79 192 8.0 20.0 0.00 0.00 0.00 35 1007.9
20260507114304 79 192 8.0 20.0 0.00 0.00 0.00 35 1008.1
20260507114204 79 193 8.0 20.0 0.00 0.00 0.00 35 1008.1
20260507114104 79 196 8.0 20.0 0.00 0.00 0.00 35 1008.2
20260507114004 79 196 8.0 20.0 0.00 0.00 0.00 34 1008.0
20260507113904 79 196 8.0 20.0 0.00 0.00 0.00 34 1008.0
20260507113804 79 196 8.0 19.0 0.00 0.00 0.00 34 1008.0
20260507113704 79 196 8.0 19.0 0.00 0.00 0.00 34 1008.0
20260507113604 78 195 8.0 19.0 0.00 0.00 0.00 34 1008.0
20260507113512 78 195 8.0 19.0 0.00 0.00 0.00 34 1008.0
20260507113409 78 196 8.0 17.0 0.00 0.00 0.00 34 1008.0
20260507113305 78 195 8.0 16.0 0.00 0.00 0.00 35 1008.0
20260507113203 79 196 8.0 16.0 0.00 0.00 0.00 35 1008.0
20260507113107 79 198 8.0 16.0 0.00 0.00 0.00 36 1008.1
20260507113004 79 201 8.0 16.0 0.00 0.00 0.00 36 1007.9
20260507112904 79 204 7.0 16.0 0.00 0.00 0.00 37 1007.9
20260507112804 79 204 7.0 16.0 0.00 0.00 0.00 37 1008.0
20260507112703 79 203 7.0 15.0 0.00 0.00 0.00 37 1007.9
20260507112604 79 202 7.0 16.0 0.00 0.00 0.00 37 1007.9
20260507112504 79 203 7.0 19.0 0.00 0.00 0.00 37 1007.9
20260507112404 79 200 7.0 19.0 0.00 0.00 0.00 36 1007.9
20260507112307 79 199 6.0 19.0 0.00 0.00 0.00 36 1007.9
20260507112205 79 196 6.0 19.0 0.00 0.00 0.00 35 1008.0
20260507112105 79 196 6.0 19.0 0.00 0.00 0.00 35 1008.0
20260507112005 79 195 6.0 19.0 0.00 0.00 0.00 35 1007.9
20260507111907 79 193 7.0 19.0 0.00 0.00 0.00 35 1007.9
20260507111808 79 192 7.0 19.0 0.00 0.00 0.00 36 1007.9
20260507111706 78 191 7.0 19.0 0.00 0.00 0.00 36 1008.1
20260507111607 78 190 7.0 19.0 0.00 0.00 0.00 36 1008.1
20260507111506 78 191 7.0 12.0 0.00 0.00 0.00 36 1008.1
20260507111405 78 190 7.0 13.0 0.00 0.00 0.00 37 1008.1
20260507111304 78 193 8.0 14.0 0.00 0.00 0.00 38 1008.1
20260507111204 78 195 8.0 14.0 0.00 0.00 0.00 39 1008.0
20260507111104 78 194 8.0 14.0 0.00 0.00 0.00 40 1008.0
20260507111005 78 198 8.0 14.0 0.00 0.00 0.00 39 1008.1
20260507110904 78 197 7.0 14.0 0.00 0.00 0.00 38 1008.1
20260507110804 78 200 7.0 15.0 0.00 0.00 0.00 39 1008.1
20260507110705 78 203 7.0 15.0 0.00 0.00 0.00 38 1008.1
20260507110606 78 205 7.0 15.0 0.00 0.00 0.00 38 1008.1
20260507110505 78 205 7.0 15.0 0.00 0.00 0.00 38 1008.0
20260507110413 79 208 7.0 15.0 0.00 0.00 0.00 37 1008.0
20260507110306 79 207 7.0 15.0 0.00 0.00 0.00 37 1008.0
20260507110207 79 207 7.0 15.0 0.00 0.00 0.00 37 1007.9
20260507110107 79 206 7.0 15.0 0.00 0.00 0.00 36 1007.9
20260507110006 79 202 7.0 15.0 0.00 0.00 0.00 36 1007.9
20260507105905 79 203 7.0 15.0 0.00 0.00 0.00 36 1007.9
20260507105805 79 201 7.0 15.0 0.00 0.00 0.00 36 1007.9
20260507105704 79 198 7.0 14.0 0.00 0.00 0.00 36 1007.8
20260507105604 79 198 7.0 14.0 0.00 0.00 0.00 36 1007.9
20260507105505 79 198 7.0 14.0 0.00 0.00 0.00 36 1007.9
20260507105404 79 200 7.0 16.0 0.00 0.00 0.00 36 1007.8
20260507105306 79 198 7.0 17.0 0.00 0.00 0.00 36 1007.8
20260507105204 79 198 7.0 17.0 0.00 0.00 0.00 37 1007.9
20260507105105 79 200 7.0 17.0 0.00 0.00 0.00 37 1007.9
20260507105006 79 204 7.0 17.0 0.00 0.00 0.00 37 1007.9
20260507104911 79 205 7.0 17.0 0.00 0.00 0.00 37 1007.9
20260507104806 79 205 7.0 17.0 0.00 0.00 0.00 37 1007.9
20260507104706 79 207 8.0 17.0 0.00 0.00 0.00 35 1007.9
20260507104606 79 207 8.0 17.0 0.00 0.00 0.00 35 1007.9
20260507104505 79 209 8.0 17.0 0.00 0.00 0.00 35 1007.9
20260507104405 79 210 8.0 17.0 0.00 0.00 0.00 35 1008.1
20260507104304 79 211 8.0 17.0 0.00 0.00 0.00 35 1008.1
20260507104205 79 213 8.0 17.0 0.00 0.00 0.00 34 1008.0
20260507104104 79 212 8.0 17.0 0.00 0.00 0.00 34 1008.1
20260507104005 79 210 8.0 17.0 0.00 0.00 0.00 35 1008.1
20260507103905 79 210 8.0 21.0 0.00 0.00 0.00 34 1007.9
20260507103804 79 210 7.0 21.0 0.00 0.00 0.00 34 1008.0
20260507103705 79 209 7.0 21.0 0.00 0.00 0.00 34 1008.0
20260507103604 79 208 7.0 21.0 0.00 0.00 0.00 34 1008.0
20260507103505 79 207 7.0 21.0 0.00 0.00 0.00 34 1008.0
20260507103305 79 203 7.0 21.0 0.00 0.00 0.00 35 1008.0
20260507103207 79 202 7.0 21.0 0.00 0.00 0.00 34 1008.0
20260507103106 79 200 7.0 21.0 0.00 0.00 0.00 34 1008.0
20260507102905 80 198 7.0 18.0 0.00 0.00 0.00 33 1007.9
20260507102810 80 200 7.0 18.0 0.00 0.00 0.00 33 1007.9
20260507102705 80 200 7.0 18.0 0.00 0.00 0.00 32 1007.9
20260507102604 79 203 7.0 18.0 0.00 0.00 0.00 32 1007.9
20260507102504 79 204 7.0 18.0 0.00 0.00 0.00 33 1008.1
20260507102404 79 205 7.0 18.0 0.00 0.00 0.00 33 1008.1
20260507102307 79 206 7.0 18.0 0.00 0.00 0.00 33 1008.0
20260507102205 79 207 7.0 18.0 0.00 0.00 0.00 33 1008.0
20260507102107 79 209 7.0 18.0 0.00 0.00 0.00 33 1008.0
20260507102007 79 210 7.0 17.0 0.00 0.00 0.00 33 1008.0
20260507101906 79 207 7.0 17.0 0.00 0.00 0.00 34 1008.0
20260507101806 79 206 7.0 15.0 0.00 0.00 0.00 34 1007.8
20260507101705 79 204 7.0 18.0 0.00 0.00 0.00 34 1007.8
20260507101611 79 204 7.0 18.0 0.00 0.00 0.00 34 1008.0
20260507101504 79 203 7.0 18.0 0.00 0.00 0.00 33 1008.0
20260507101404 79 202 7.0 18.0 0.00 0.00 0.00 33 1008.0
20260507101304 79 199 7.0 18.0 0.00 0.00 0.00 34 1008.1
20260507101205 79 198 7.0 18.0 0.00 0.00 0.00 34 1008.1
20260507101104 79 199 7.0 18.0 0.00 0.00 0.00 34 1008.1
20260507101007 79 196 7.0 18.0 0.00 0.00 0.00 34 1008.1
20260507100905 79 199 7.0 18.0 0.00 0.00 0.00 33 1008.1
20260507100804 79 201 7.0 18.0 0.00 0.00 0.00 33 1008.1
20260507100705 79 207 7.0 17.0 0.00 0.00 0.00 33 1008.2
20260507100604 79 204 7.0 17.0 0.00 0.00 0.00 33 1008.2
20260507100504 79 204 7.0 17.0 0.00 0.00 0.00 33 1008.1
20260507100405 79 205 7.0 17.0 0.00 0.00 0.00 33 1008.1
20260507100305 79 207 7.0 15.0 0.00 0.00 0.00 33 1008.1
20260507100204 79 205 7.0 16.0 0.00 0.00 0.00 33 1008.3
20260507100106 79 205 7.0 16.0 0.00 0.00 0.00 33 1008.3
20260507100005 79 208 7.0 16.0 0.00 0.00 0.00 34 1008.5
20260507095904 79 207 7.0 16.0 0.00 0.00 0.00 34 1008.5
20260507095804 79 204 7.0 16.0 0.00 0.00 0.00 34 1008.5
20260507095705 79 200 7.0 16.0 0.00 0.00 0.00 34 1008.5
20260507095604 79 200 7.0 16.0 0.00 0.00 0.00 34 1008.5
20260507095505 79 198 7.0 16.0 0.00 0.00 0.00 34 1008.5
20260507095405 79 201 7.0 16.0 0.00 0.00 0.00 34 1008.5
20260507095306 79 202 7.0 16.0 0.00 0.00 0.00 34 1008.4
20260507095204 79 203 7.0 16.0 0.00 0.00 0.00 34 1008.4
20260507095104 79 201 7.0 16.0 0.00 0.00 0.00 34 1008.4
20260507095005 79 199 7.0 16.0 0.00 0.00 0.00 34 1008.4
20260507094904 79 197 7.0 16.0 0.00 0.00 0.00 34 1008.5
20260507094804 79 200 7.0 16.0 0.00 0.00 0.00 33 1008.5
20260507094704 79 202 7.0 16.0 0.00 0.00 0.00 34 1008.3
20260507094606 79 203 7.0 16.0 0.00 0.00 0.00 34 1008.3
20260507094504 79 202 7.0 16.0 0.00 0.00 0.00 34 1008.4
20260507094406 79 200 7.0 15.0 0.00 0.00 0.00 34 1008.4
20260507094311 79 199 7.0 15.0 0.00 0.00 0.00 33 1008.4
20260507094235 79 197 7.0 15.0 0.00 0.00 0.00 34 1008.4
20260507094128 79 198 7.0 15.0 0.00 0.00 0.00 34 1008.4
20260507094035 78 198 7.0 15.0 0.00 0.00 0.00 35 1008.4
20260507093928 78 199 7.0 15.0 0.00 0.00 0.00 35 1008.4
20260507093834 78 200 7.0 15.0 0.00 0.00 0.00 35 1008.4
20260507093722 78 202 7.0 15.0 0.00 0.00 0.00 35 1008.4
20260507093627 78 203 7.0 15.0 0.00 0.00 0.00 35 1008.4
20260507093526 78 205 7.0 15.0 0.00 0.00 0.00 34 1008.4
20260507093418 78 206 7.0 14.0 0.00 0.00 0.00 35 1008.5
20260507093324 78 206 7.0 16.0 0.00 0.00 0.00 35 1008.5
20260507093228 78 210 7.0 16.0 0.00 0.00 0.00 35 1008.5
20260507093129 78 205 7.0 16.0 0.00 0.00 0.00 35 1008.5
20260507093015 78 206 7.0 16.0 0.00 0.00 0.00 35 1008.4
20260507092904 78 210 7.0 16.0 0.00 0.00 0.00 35 1008.4
20260507092804 78 209 7.0 19.0 0.00 0.00 0.00 35 1008.4
20260507092704 78 208 7.0 19.0 0.00 0.00 0.00 35 1008.5
20260507092604 78 206 7.0 19.0 0.00 0.00 0.00 35 1008.4
20260507092505 78 204 7.0 19.0 0.00 0.00 0.00 35 1008.4
20260507092404 78 205 7.0 19.0 0.00 0.00 0.00 35 1008.4
20260507092306 78 205 6.0 19.0 0.00 0.00 0.00 35 1008.4
20260507092204 78 205 6.0 19.0 0.00 0.00 0.00 35 1008.4
20260507092106 78 208 6.0 19.0 0.00 0.00 0.00 35 1008.4
20260507092007 78 210 6.0 19.0 0.00 0.00 0.00 35 1008.4
20260507091906 78 208 6.0 19.0 0.00 0.00 0.00 35 1008.4
20260507091808 78 206 6.0 18.0 0.00 0.00 0.00 35 1008.4
20260507091705 78 207 6.0 18.0 0.00 0.00 0.00 35 1008.4
20260507091606 78 209 6.0 13.0 0.00 0.00 0.00 36 1008.3
20260507091504 78 208 6.0 13.0 0.00 0.00 0.00 36 1008.3
20260507091403 78 209 6.0 13.0 0.00 0.00 0.00 35 1008.4
20260507091304 78 207 6.0 16.0 0.00 0.00 0.00 35 1008.4
20260507091204 78 206 6.0 16.0 0.00 0.00 0.00 35 1008.4
20260507091104 78 201 6.0 16.0 0.00 0.00 0.00 35 1008.4
20260507091005 78 200 6.0 16.0 0.00 0.00 0.00 35 1008.4
20260507090904 78 198 6.0 16.0 0.00 0.00 0.00 36 1008.5
20260507090804 78 201 6.0 16.0 0.00 0.00 0.00 36 1008.5
20260507090704 78 202 6.0 16.0 0.00 0.00 0.00 36 1008.5
20260507090606 78 201 6.0 16.0 0.00 0.00 0.00 36 1008.5
20260507090504 78 204 6.0 16.0 0.00 0.00 0.00 36 1008.5
20260507090404 77 204 6.0 16.0 0.00 0.00 0.00 37 1008.5
20260507090306 77 204 6.0 15.0 0.00 0.00 0.00 37 1008.5
20260507090206 77 201 6.0 18.0 0.00 0.00 0.00 37 1008.5
20260507090105 77 205 6.0 18.0 0.00 0.00 0.00 37 1008.6
20260507090005 78 203 6.0 18.0 0.00 0.00 0.00 37 1008.6
20260507085904 77 202 6.0 18.0 0.00 0.00 0.00 38 1008.6
20260507085804 77 199 6.0 18.0 0.00 0.00 0.00 38 1008.6
20260507085705 77 201 6.0 18.0 0.00 0.00 0.00 38 1008.6
20260507085605 77 202 6.0 18.0 0.00 0.00 0.00 38 1008.6
20260507085505 77 202 6.0 18.0 0.00 0.00 0.00 38 1008.7
20260507085405 77 202 6.0 18.0 0.00 0.00 0.00 38 1008.7
20260507085306 77 204 6.0 18.0 0.00 0.00 0.00 38 1008.6
20260507085205 77 203 5.0 12.0 0.00 0.00 0.00 38 1008.6
20260507085105 77 202 5.0 12.0 0.00 0.00 0.00 38 1008.7
20260507085004 77 202 5.0 12.0 0.00 0.00 0.00 38 1008.7
20260507084914 77 202 5.0 12.0 0.00 0.00 0.00 38 1008.7
20260507084806 77 204 5.0 12.0 0.00 0.00 0.00 38 1008.8
20260507084706 77 204 5.0 12.0 0.00 0.00 0.00 38 1008.8
20260507084605 77 201 5.0 12.0 0.00 0.00 0.00 38 1008.8
20260507084504 77 203 5.0 12.0 0.00 0.00 0.00 39 1008.9
20260507084404 77 200 5.0 11.0 0.00 0.00 0.00 39 1008.9
20260507084305 77 199 5.0 12.0 0.00 0.00 0.00 39 1008.8
20260507084205 77 201 5.0 12.0 0.00 0.00 0.00 39 1008.9
20260507084105 77 201 5.0 12.0 0.00 0.00 0.00 40 1008.9
20260507084005 77 201 5.0 12.0 0.00 0.00 0.00 40 1009.0
20260507083905 77 204 5.0 12.0 0.00 0.00 0.00 40 1009.0
20260507083805 77 205 5.0 12.0 0.00 0.00 0.00 39 1008.9
20260507083705 77 203 5.0 12.0 0.00 0.00 0.00 39 1008.8
20260507083606 76 202 5.0 12.0 0.00 0.00 0.00 39 1008.8
20260507083507 76 200 5.0 14.0 0.00 0.00 0.00 39 1008.8
20260507083406 76 202 5.0 14.0 0.00 0.00 0.00 39 1008.8
20260507083304 76 202 6.0 14.0 0.00 0.00 0.00 39 1008.9
20260507083205 76 204 6.0 14.0 0.00 0.00 0.00 40 1008.9
20260507083108 76 205 6.0 14.0 0.00 0.00 0.00 40 1008.9
20260507083005 76 205 6.0 14.0 0.00 0.00 0.00 40 1009.0
20260507082904 76 202 6.0 14.0 0.00 0.00 0.00 41 1009.0
20260507082805 76 200 6.0 14.0 0.00 0.00 0.00 41 1009.0
20260507082704 76 200 6.0 14.0 0.00 0.00 0.00 41 1008.9
20260507082605 76 201 6.0 14.0 0.00 0.00 0.00 40 1008.9
20260507082505 76 199 6.0 13.0 0.00 0.00 0.00 40 1008.9
20260507082405 76 199 6.0 13.0 0.00 0.00 0.00 41 1008.9
20260507082306 76 199 6.0 13.0 0.00 0.00 0.00 42 1008.9
20260507082205 76 199 6.0 13.0 0.00 0.00 0.00 42 1009.0
20260507082109 76 198 6.0 13.0 0.00 0.00 0.00 43 1009.0
20260507082014 76 200 6.0 13.0 0.00 0.00 0.00 43 1009.0
20260507081906 75 201 6.0 13.0 0.00 0.00 0.00 43 1009.1
20260507081805 75 199 6.0 13.0 0.00 0.00 0.00 44 1009.1
20260507081706 75 201 6.0 13.0 0.00 0.00 0.00 44 1009.0
20260507081615 75 197 6.0 13.0 0.00 0.00 0.00 44 1009.0
20260507081504 75 198 5.0 13.0 0.00 0.00 0.00 44 1009.1
20260507081405 75 196 5.0 13.0 0.00 0.00 0.00 44 1009.1
20260507081305 75 194 5.0 13.0 0.00 0.00 0.00 44 1009.1
20260507081205 76 193 5.0 13.0 0.00 0.00 0.00 44 1009.1
20260507081105 76 192 5.0 11.0 0.00 0.00 0.00 44 1009.1
20260507081005 75 191 5.0 11.0 0.00 0.00 0.00 44 1009.1
20260507080904 75 192 5.0 11.0 0.00 0.00 0.00 44 1009.2
20260507080804 76 195 5.0 11.0 0.00 0.00 0.00 44 1009.2
20260507080704 76 193 5.0 11.0 0.00 0.00 0.00 44 1009.2
20260507080606 76 201 5.0 11.0 0.00 0.00 0.00 44 1009.2
20260507080511 76 202 5.0 11.0 0.00 0.00 0.00 44 1009.2
20260507080405 76 202 5.0 11.0 0.00 0.00 0.00 43 1009.2
20260507080311 76 204 5.0 11.0 0.00 0.00 0.00 43 1009.2
20260507080006 76 202 5.0 13.0 0.00 0.00 0.00 43 1009.2
20260507075905 76 201 5.0 13.0 0.00 0.00 0.00 43 1009.2
20260507075805 76 200 5.0 13.0 0.00 0.00 0.00 42 1009.4
20260507075704 76 200 5.0 13.0 0.00 0.00 0.00 42 1009.4
20260507075605 76 200 5.0 13.0 0.00 0.00 0.00 42 1009.3
20260507075504 76 203 5.0 13.0 0.00 0.00 0.00 42 1009.3
20260507075405 76 203 5.0 13.0 0.00 0.00 0.00 41 1009.3
20260507075307 76 205 5.0 13.0 0.00 0.00 0.00 42 1009.4
20260507075205 76 203 5.0 13.0 0.00 0.00 0.00 41 1009.4
20260507075105 76 206 5.0 11.0 0.00 0.00 0.00 41 1009.4
20260507075007 76 208 5.0 10.0 0.00 0.00 0.00 41 1009.4
20260507074905 76 209 5.0 10.0 0.00 0.00 0.00 40 1009.4
20260507074806 76 209 5.0 10.0 0.00 0.00 0.00 40 1009.4
20260507074705 76 211 5.0 10.0 0.00 0.00 0.00 40 1009.4
20260507074605 76 208 5.0 11.0 0.00 0.00 0.00 40 1009.5
20260507074505 76 204 5.0 11.0 0.00 0.00 0.00 40 1009.5
20260507074404 76 204 5.0 11.0 0.00 0.00 0.00 41 1009.5
20260507074305 76 203 5.0 11.0 0.00 0.00 0.00 40 1009.5
20260507074204 75 205 5.0 11.0 0.00 0.00 0.00 40 1009.5
20260507074115 75 206 5.0 11.0 0.00 0.00 0.00 40 1009.5
20260507074004 75 205 5.0 11.0 0.00 0.00 0.00 40 1009.6
20260507073905 75 204 4.0 11.0 0.00 0.00 0.00 40 1009.6
20260507073805 75 204 4.0 11.0 0.00 0.00 0.00 40 1009.6
20260507073704 75 202 4.0 11.0 0.00 0.00 0.00 40 1009.6
20260507073604 75 203 4.0 11.0 0.00 0.00 0.00 40 1009.7
20260507073505 75 202 4.0 11.0 0.00 0.00 0.00 40 1009.8
20260507073405 75 201 4.0 10.0 0.00 0.00 0.00 41 1009.8
20260507073306 75 202 4.0 10.0 0.00 0.00 0.00 41 1009.8
20260507073205 75 203 4.0 10.0 0.00 0.00 0.00 41 1009.8
20260507073108 75 201 4.0 10.0 0.00 0.00 0.00 41 1009.8
20260507073005 75 200 4.0 10.0 0.00 0.00 0.00 41 1009.9
20260507072904 75 199 4.0 10.0 0.00 0.00 0.00 41 1009.9
20260507072804 75 200 4.0 11.0 0.00 0.00 0.00 42 1009.9
20260507072704 75 199 4.0 11.0 0.00 0.00 0.00 42 1009.9
20260507072605 74 201 4.0 11.0 0.00 0.00 0.00 42 1010.0
20260507072504 74 202 4.0 11.0 0.00 0.00 0.00 42 1010.0
20260507072404 74 202 4.0 11.0 0.00 0.00 0.00 43 1010.0
20260507072306 74 201 4.0 11.0 0.00 0.00 0.00 43 1009.9
20260507072204 74 198 4.0 11.0 0.00 0.00 0.00 43 1010.1
20260507072104 74 195 4.0 11.0 0.00 0.00 0.00 43 1010.1
20260507072006 74 196 4.0 11.0 0.00 0.00 0.00 43 1010.1
20260507071910 74 197 4.0 11.0 0.00 0.00 0.00 43 1010.1
20260507071810 74 200 4.0 10.0 0.00 0.00 0.00 43 1010.0
20260507071705 74 199 4.0 10.0 0.00 0.00 0.00 43 1010.1
20260507071605 74 197 4.0 10.0 0.00 0.00 0.00 43 1010.1
20260507071504 74 200 4.0 10.0 0.00 0.00 0.00 44 1010.0
20260507071404 74 200 4.0 10.0 0.00 0.00 0.00 43 1010.0
20260507071304 74 198 4.0 12.0 0.00 0.00 0.00 44 1010.0
20260507071204 73 197 4.0 12.0 0.00 0.00 0.00 44 1010.0
20260507071104 73 197 4.0 12.0 0.00 0.00 0.00 44 1010.0
20260507071004 73 198 4.0 12.0 0.00 0.00 0.00 44 1010.0
20260507070904 73 196 4.0 12.0 0.00 0.00 0.00 44 1010.0
20260507070804 73 192 4.0 12.0 0.00 0.00 0.00 44 1010.0
20260507070709 73 192 4.0 12.0 0.00 0.00 0.00 45 1009.9
20260507070604 73 192 3.0 12.0 0.00 0.00 0.00 45 1009.9
20260507070505 73 191 3.0 12.0 0.00 0.00 0.00 45 1010.0
20260507070405 73 188 3.0 12.0 0.00 0.00 0.00 45 1010.1
20260507070310 73 190 3.0 11.0 0.00 0.00 0.00 45 1010.1
20260507070205 73 193 3.0 11.0 0.00 0.00 0.00 45 1010.0
20260507070104 72 194 3.0 11.0 0.00 0.00 0.00 45 1010.0
20260507070009 72 190 3.0 11.0 0.00 0.00 0.00 45 1010.0
20260507065904 72 192 3.0 11.0 0.00 0.00 0.00 47 1010.1
20260507065804 72 195 3.0 11.0 0.00 0.00 0.00 47 1010.1
20260507065704 72 197 3.0 11.0 0.00 0.00 0.00 47 1010.1
20260507065604 71 200 3.0 11.0 0.00 0.00 0.00 47 1010.1
20260507065504 71 202 3.0 11.0 0.00 0.00 0.00 47 1010.2
20260507065404 71 205 3.0 11.0 0.00 0.00 0.00 47 1010.2
20260507065306 71 203 3.0 9.0 0.00 0.00 0.00 48 1010.2
20260507065203 70 200 3.0 9.0 0.00 0.00 0.00 49 1010.3
20260507065106 70 208 3.0 9.0 0.00 0.00 0.00 49 1010.2
20260507065004 70 220 3.0 9.0 0.00 0.00 0.00 49 1010.2
20260507064904 70 220 3.0 9.0 0.00 0.00 0.00 51 1010.3
20260507064804 69 225 3.0 10.0 0.00 0.00 0.00 51 1010.3
20260507064704 69 229 3.0 10.0 0.00 0.00 0.00 52 1010.4
20260507064605 69 228 3.0 10.0 0.00 0.00 0.00 54 1010.6
20260507064504 68 236 3.0 10.0 0.00 0.00 0.00 56 1010.6
20260507064404 68 251 2.0 10.0 0.00 0.00 0.00 60 1010.5
20260507064304 68 251 2.0 10.0 0.00 0.00 0.00 59 1010.5
20260507064204 68 250 2.0 10.0 0.00 0.00 0.00 62 1010.5
20260507064104 68 248 2.0 10.0 0.00 0.00 0.00 59 1010.6
20260507064004 68 242 2.0 10.0 0.00 0.00 0.00 58 1010.6
20260507063904 67 245 2.0 10.0 0.00 0.00 0.00 62 1010.6
20260507063703 67 249 2.0 7.0 0.00 0.00 0.00 62 1010.6
20260507063607 67 262 2.0 7.0 0.00 0.00 0.00 65 1010.6
20260507063504 67 260 2.0 7.0 0.00 0.00 0.00 64 1010.6
20260507063405 67 258 2.0 7.0 0.00 0.00 0.00 58 1010.6
20260507063304 66 275 2.0 7.0 0.00 0.00 0.00 58 1010.6
20260507063206 66 303 2.0 7.0 0.00 0.00 0.00 58 1010.6
20260507063105 66 326 2.0 6.0 0.00 0.00 0.00 60 1010.5
20260507063004 66 333 2.0 6.0 0.00 0.00 0.00 64 1010.5
20260507062904 66 343 2.0 4.0 0.00 0.00 0.00 68 1010.6
20260507062804 66 340 2.0 4.0 0.00 0.00 0.00 69 1010.6
20260507062704 66 339 2.0 4.0 0.00 0.00 0.00 68 1010.6
20260507062604 66 343 2.0 4.0 0.00 0.00 0.00 69 1010.6
20260507062504 66 346 2.0 4.0 0.00 0.00 0.00 69 1010.6
20260507062405 66 351 2.0 4.0 0.00 0.00 0.00 69 1010.6
20260507062306 66 360 1.0 4.0 0.00 0.00 0.00 69 1010.5
20260507062205 66 10 1.0 4.0 0.00 0.00 0.00 68 1010.5
20260507062106 66 23 1.0 4.0 0.00 0.00 0.00 69 1010.6
20260507062006 66 38 1.0 4.0 0.00 0.00 0.00 69 1010.6
20260507061909 66 48 1.0 4.0 0.00 0.00 0.00 66 1010.5
20260507061811 65 54 1.0 4.0 0.00 0.00 0.00 66 1010.7
20260507061706 65 55 1.0 4.0 0.00 0.00 0.00 70 1010.7
20260507061505 65 63 1.0 4.0 0.00 0.00 0.00 71 1010.7
20260507061405 65 65 1.0 4.0 0.00 0.00 0.00 70 1010.7
20260507061305 65 70 1.0 4.0 0.00 0.00 0.00 70 1010.8
20260507061205 65 73 1.0 4.0 0.00 0.00 0.00 71 1010.8
20260507061104 65 77 1.0 4.0 0.00 0.00 0.00 71 1010.8
20260507061005 65 83 1.0 4.0 0.00 0.00 0.00 71 1010.8
20260507060905 65 84 1.0 4.0 0.00 0.00 0.00 71 1010.8
20260507060806 65 85 1.0 4.0 0.00 0.00 0.00 72 1010.7
20260507060705 65 87 1.0 4.0 0.00 0.00 0.00 72 1010.7
20260507060606 65 88 1.0 4.0 0.00 0.00 0.00 72 1010.7
20260507060506 65 91 1.0 3.0 0.00 0.00 0.00 73 1010.6
20260507060406 65 92 1.0 3.0 0.00 0.00 0.00 73 1010.6
20260507060310 65 91 1.0 3.0 0.00 0.00 0.00 73 1010.7
20260507060205 65 90 1.0 3.0 0.00 0.00 0.00 73 1010.7
20260507060105 65 90 0.0 3.0 0.00 0.00 0.00 73 1010.7
20260507060005 65 89 0.0 3.0 0.00 0.00 0.00 73 1010.7
20260507055904 65 89 0.0 3.0 0.00 0.00 0.00 73 1010.7
20260507055805 65 88 0.0 3.0 0.00 0.00 0.00 73 1010.7
20260507055704 65 89 0.0 3.0 0.00 0.00 0.00 73 1010.7
20260507055604 65 95 0.0 3.0 0.00 0.00 0.00 73 1010.7
20260507055505 65 96 0.0 2.0 0.00 0.00 0.00 73 1010.6
20260507055408 65 96 0.0 1.0 0.00 0.00 0.00 73 1010.6
20260507055306 65 96 1.0 2.0 0.00 0.00 0.00 73 1010.7
20260507055204 65 98 1.0 2.0 0.00 0.00 0.00 74 1010.7
20260507055105 65 88 1.0 4.0 0.00 0.00 0.00 73 1010.7
20260507055012 65 88 1.0 4.0 0.00 0.00 0.00 74 1010.7
20260507054906 65 92 1.0 4.0 0.00 0.00 0.00 74 1010.7
20260507054804 65 107 1.0 4.0 0.00 0.00 0.00 74 1010.7
20260507054705 65 112 1.0 4.0 0.00 0.00 0.00 74 1010.7
20260507054605 65 118 1.0 4.0 0.00 0.00 0.00 74 1010.7
20260507054505 65 126 1.0 4.0 0.00 0.00 0.00 74 1010.7
20260507054404 65 140 1.0 4.0 0.00 0.00 0.00 74 1010.6
20260507054305 65 149 1.0 4.0 0.00 0.00 0.00 74 1010.6
20260507054204 65 159 1.0 4.0 0.00 0.00 0.00 74 1010.6
20260507054104 65 177 1.0 3.0 0.00 0.00 0.00 74 1010.6
20260507054004 65 178 1.0 3.0 0.00 0.00 0.00 74 1010.7
20260507053904 65 183 1.0 4.0 0.00 0.00 0.00 73 1010.8
20260507053804 65 196 1.0 4.0 0.00 0.00 0.00 74 1010.8
20260507053704 65 205 1.0 4.0 0.00 0.00 0.00 74 1010.7
20260507053604 65 199 1.0 4.0 0.00 0.00 0.00 74 1010.7
20260507053506 65 192 1.0 4.0 0.00 0.00 0.00 74 1010.7
20260507053405 65 187 1.0 4.0 0.00 0.00 0.00 74 1010.7
20260507053305 65 183 1.0 4.0 0.00 0.00 0.00 74 1010.7
20260507053206 65 181 1.0 5.0 0.00 0.00 0.00 74 1010.7
20260507053105 65 181 1.0 5.0 0.00 0.00 0.00 75 1010.7
20260507053005 65 180 1.0 5.0 0.00 0.00 0.00 75 1010.8
20260507052905 65 180 1.0 5.0 0.00 0.00 0.00 75 1010.8
20260507052805 65 176 1.0 5.0 0.00 0.00 0.00 75 1010.8
20260507052705 65 171 1.0 5.0 0.00 0.00 0.00 75 1010.7
20260507052605 65 169 1.0 5.0 0.00 0.00 0.00 75 1010.7
20260507052505 65 170 1.0 5.0 0.00 0.00 0.00 75 1010.7
20260507052405 64 167 1.0 5.0 0.00 0.00 0.00 75 1010.7
20260507052306 64 167 1.0 5.0 0.00 0.00 0.00 75 1010.7
20260507052205 64 167 1.0 4.0 0.00 0.00 0.00 75 1010.7
20260507052104 64 167 1.0 4.0 0.00 0.00 0.00 75 1010.8
20260507052005 64 173 1.0 4.0 0.00 0.00 0.00 75 1010.8
20260507051905 64 167 1.0 4.0 0.00 0.00 0.00 76 1010.9
20260507051806 64 164 1.0 4.0 0.00 0.00 0.00 76 1010.9
20260507051706 64 165 1.0 4.0 0.00 0.00 0.00 76 1010.9
20260507051607 64 169 1.0 4.0 0.00 0.00 0.00 76 1011.0
20260507051504 64 178 2.0 4.0 0.00 0.00 0.00 76 1011.0
20260507051404 64 189 2.0 4.0 0.00 0.00 0.00 76 1010.9
20260507051304 64 190 2.0 4.0 0.00 0.00 0.00 76 1010.9
20260507051204 64 185 2.0 7.0 0.00 0.00 0.00 76 1010.9
20260507051007 64 175 2.0 7.0 0.00 0.00 0.00 76 1010.9
20260507050904 64 172 2.0 7.0 0.00 0.00 0.00 76 1010.9
20260507050804 64 168 2.0 7.0 0.00 0.00 0.00 76 1011.0
20260507050704 64 169 2.0 7.0 0.00 0.00 0.00 76 1011.0
20260507050604 64 170 2.0 7.0 0.00 0.00 0.00 77 1011.0
20260507050505 64 169 2.0 7.0 0.00 0.00 0.00 77 1011.0
20260507050406 64 167 2.0 7.0 0.00 0.00 0.00 77 1011.0
20260507050306 64 169 2.0 7.0 0.00 0.00 0.00 77 1010.9
20260507050205 64 172 2.0 6.0 0.00 0.00 0.00 77 1010.9
20260507050105 64 174 2.0 6.0 0.00 0.00 0.00 77 1010.9
20260507050005 63 171 2.0 6.0 0.00 0.00 0.00 77 1010.9
20260507045904 63 175 2.0 6.0 0.00 0.00 0.00 78 1010.9
20260507045804 63 178 2.0 5.0 0.00 0.00 0.00 78 1010.9
20260507045704 63 178 2.0 8.0 0.00 0.00 0.00 78 1010.9
20260507045604 63 177 2.0 8.0 0.00 0.00 0.00 79 1010.9
20260507045505 63 179 2.0 8.0 0.00 0.00 0.00 79 1010.8
20260507045404 63 184 2.0 8.0 0.00 0.00 0.00 79 1010.8
20260507045306 63 183 2.0 8.0 0.00 0.00 0.00 79 1010.9
20260507045204 63 184 2.0 8.0 0.00 0.00 0.00 79 1010.9
20260507045104 63 190 2.0 8.0 0.00 0.00 0.00 79 1010.9
20260507045006 63 189 2.0 8.0 0.00 0.00 0.00 79 1011.0
20260507044904 63 186 2.0 8.0 0.00 0.00 0.00 79 1011.0
20260507044806 63 185 2.0 8.0 0.00 0.00 0.00 80 1011.0
20260507044705 63 203 2.0 6.0 0.00 0.00 0.00 80 1011.0
20260507044605 63 217 2.0 5.0 0.00 0.00 0.00 80 1011.1
20260507044505 63 171 2.0 5.0 0.00 0.00 0.00 80 1011.1
20260507044405 63 154 2.0 5.0 0.00 0.00 0.00 80 1011.1
20260507044304 63 153 2.0 5.0 0.00 0.00 0.00 80 1011.1
20260507044204 63 112 2.0 5.0 0.00 0.00 0.00 80 1011.2
20260507044104 63 85 2.0 5.0 0.00 0.00 0.00 80 1011.2
20260507044004 63 29 2.0 5.0 0.00 0.00 0.00 80 1011.2
20260507043904 63 336 2.0 5.0 0.00 0.00 0.00 80 1011.2
20260507043804 63 336 2.0 5.0 0.00 0.00 0.00 80 1011.1
20260507043704 64 18 2.0 5.0 0.00 0.00 0.00 80 1011.1
20260507043604 64 349 2.0 5.0 0.00 0.00 0.00 80 1011.1
20260507043505 64 327 2.0 5.0 0.00 0.00 0.00 80 1011.1
20260507043404 64 329 2.0 5.0 0.00 0.00 0.00 80 1011.1
20260507043305 64 325 2.0 5.0 0.00 0.00 0.00 80 1011.0
20260507043205 64 297 2.0 5.0 0.00 0.00 0.00 79 1011.1
20260507043105 64 265 2.0 4.0 0.00 0.00 0.00 79 1011.1
20260507043004 64 207 2.0 4.0 0.00 0.00 0.00 79 1011.1
20260507042905 64 191 2.0 4.0 0.00 0.00 0.00 79 1011.1
20260507042804 64 189 2.0 5.0 0.00 0.00 0.00 79 1011.1
20260507042704 64 188 1.0 5.0 0.00 0.00 0.00 79 1011.2
20260507042604 64 180 1.0 5.0 0.00 0.00 0.00 79 1011.2
20260507042504 64 173 1.0 5.0 0.00 0.00 0.00 79 1011.2
20260507042404 64 173 1.0 5.0 0.00 0.00 0.00 78 1011.2
20260507042306 64 171 1.0 5.0 0.00 0.00 0.00 77 1011.2
20260507042204 64 166 1.0 5.0 0.00 0.00 0.00 77 1011.1
20260507042104 64 168 1.0 5.0 0.00 0.00 0.00 77 1011.1
20260507042005 64 160 1.0 5.0 0.00 0.00 0.00 76 1011.1
20260507041905 64 151 1.0 5.0 0.00 0.00 0.00 76 1011.1
20260507041807 64 151 1.0 4.0 0.00 0.00 0.00 76 1011.1
20260507041705 64 146 1.0 4.0 0.00 0.00 0.00 76 1011.1
20260507041605 64 141 1.0 4.0 0.00 0.00 0.00 76 1011.1
20260507041504 64 139 1.0 4.0 0.00 0.00 0.00 76 1011.1
20260507041404 64 138 1.0 3.0 0.00 0.00 0.00 76 1011.2
20260507041304 64 146 1.0 3.0 0.00 0.00 0.00 76 1011.2
20260507041204 64 182 1.0 4.0 0.00 0.00 0.00 75 1011.2
20260507041104 64 179 1.0 4.0 0.00 0.00 0.00 75 1011.2
20260507041004 64 184 1.0 4.0 0.00 0.00 0.00 75 1011.2
20260507040904 64 194 1.0 6.0 0.00 0.00 0.00 75 1011.3
20260507040804 64 166 1.0 6.0 0.00 0.00 0.00 75 1011.3
20260507040704 64 153 1.0 6.0 0.00 0.00 0.00 75 1011.2
20260507040604 64 151 1.0 6.0 0.00 0.00 0.00 75 1011.2
20260507040504 64 148 1.0 6.0 0.00 0.00 0.00 75 1011.2
20260507040403 64 138 1.0 6.0 0.00 0.00 0.00 75 1011.2
20260507040206 64 118 1.0 6.0 0.00 0.00 0.00 76 1011.2
20260507040105 64 108 1.0 6.0 0.00 0.00 0.00 76 1011.2
20260507040004 64 100 1.0 6.0 0.00 0.00 0.00 76 1011.2
20260507035820 64 94 1.0 5.0 0.00 0.00 0.00 76 1011.2
20260507035704 64 75 1.0 4.0 0.00 0.00 0.00 77 1011.1
20260507035604 64 68 1.0 4.0 0.00 0.00 0.00 77 1011.1
20260507035504 64 66 1.0 4.0 0.00 0.00 0.00 77 1011.1
20260507035404 64 67 1.0 4.0 0.00 0.00 0.00 76 1011.0
20260507035306 64 67 0.0 4.0 0.00 0.00 0.00 76 1011.0
20260507035204 64 71 0.0 4.0 0.00 0.00 0.00 76 1011.0
20260507035104 64 75 0.0 4.0 0.00 0.00 0.00 76 1010.9
20260507035005 64 78 0.0 4.0 0.00 0.00 0.00 75 1010.9
20260507034908 64 79 0.0 4.0 0.00 0.00 0.00 73 1010.9
20260507034804 64 81 0.0 4.0 0.00 0.00 0.00 72 1010.9
20260507034706 64 104 0.0 4.0 0.00 0.00 0.00 71 1010.9
20260507034604 64 202 0.0 2.0 0.00 0.00 0.00 71 1010.9
20260507034504 64 202 0.0 2.0 0.00 0.00 0.00 72 1010.9
20260507034404 64 202 0.0 2.0 0.00 0.00 0.00 71 1010.9
20260507034304 64 202 0.0 2.0 0.00 0.00 0.00 71 1010.9
20260507034204 64 202 0.0 2.0 0.00 0.00 0.00 72 1010.9
20260507034104 64 202 0.0 1.0 0.00 0.00 0.00 73 1010.8
20260507034004 64 202 0.0 1.0 0.00 0.00 0.00 72 1010.8
20260507033903 64 202 0.0 1.0 0.00 0.00 0.00 71 1010.8
20260507033804 64 202 0.0 1.0 0.00 0.00 0.00 71 1010.8
20260507033704 64 202 0.0 1.0 0.00 0.00 0.00 71 1010.8
20260507033604 64 202 0.0 1.0 0.00 0.00 0.00 71 1010.8
20260507033504 64 203 0.0 1.0 0.00 0.00 0.00 70 1010.8
20260507033405 64 200 0.0 3.0 0.00 0.00 0.00 70 1010.8
20260507033304 64 198 0.0 3.0 0.00 0.00 0.00 70 1010.9
20260507033205 64 196 0.0 3.0 0.00 0.00 0.00 71 1010.9
20260507033104 64 195 0.0 3.0 0.00 0.00 0.00 71 1010.9
20260507033004 64 195 0.0 3.0 0.00 0.00 0.00 72 1010.8
20260507032904 64 195 0.0 3.0 0.00 0.00 0.00 72 1010.8
20260507032804 64 195 0.0 3.0 0.00 0.00 0.00 73 1010.9
20260507032703 65 194 0.0 3.0 0.00 0.00 0.00 73 1010.9
20260507032604 65 194 0.0 3.0 0.00 0.00 0.00 73 1010.9
20260507032505 65 193 0.0 3.0 0.00 0.00 0.00 73 1010.8
20260507032404 65 189 0.0 2.0 0.00 0.00 0.00 73 1010.8
20260507032306 65 185 0.0 2.0 0.00 0.00 0.00 73 1010.9
20260507032204 65 183 0.0 2.0 0.00 0.00 0.00 69 1010.9
20260507032104 64 193 0.0 2.0 0.00 0.00 0.00 67 1010.7
20260507032003 64 193 0.0 2.0 0.00 0.00 0.00 67 1010.7
20260507031905 64 193 0.0 2.0 0.00 0.00 0.00 67 1010.7
20260507031805 64 193 0.0 2.0 0.00 0.00 0.00 67 1010.7
20260507031704 64 197 0.0 2.0 0.00 0.00 0.00 67 1010.8
20260507031605 64 198 0.0 2.0 0.00 0.00 0.00 67 1010.8
20260507031504 64 202 0.0 2.0 0.00 0.00 0.00 67 1010.8
20260507031404 64 203 0.0 2.0 0.00 0.00 0.00 67 1010.8
20260507031304 64 206 0.0 2.0 0.00 0.00 0.00 67 1010.8
20260507031205 64 214 0.0 3.0 0.00 0.00 0.00 67 1010.8
20260507031104 64 213 0.0 3.0 0.00 0.00 0.00 68 1010.8
20260507031005 64 212 0.0 3.0 0.00 0.00 0.00 68 1010.8
20260507030905 64 210 0.0 3.0 0.00 0.00 0.00 68 1010.8
20260507030805 64 208 0.0 3.0 0.00 0.00 0.00 68 1010.8
20260507030704 64 203 1.0 3.0 0.00 0.00 0.00 68 1010.8
20260507030604 64 200 1.0 3.0 0.00 0.00 0.00 69 1010.8
20260507030505 64 194 1.0 3.0 0.00 0.00 0.00 69 1010.9
20260507030405 64 190 1.0 3.0 0.00 0.00 0.00 69 1010.9
20260507030306 64 187 1.0 3.0 0.00 0.00 0.00 70 1010.9
20260507030204 64 180 1.0 3.0 0.00 0.00 0.00 70 1010.8
20260507030105 64 179 1.0 3.0 0.00 0.00 0.00 70 1010.8
20260507030005 64 181 1.0 3.0 0.00 0.00 0.00 71 1010.8
20260507025905 64 184 1.0 3.0 0.00 0.00 0.00 71 1010.8
20260507025804 64 185 1.0 3.0 0.00 0.00 0.00 71 1010.8
20260507025704 64 189 1.0 3.0 0.00 0.00 0.00 71 1010.7
20260507025604 64 194 1.0 3.0 0.00 0.00 0.00 71 1010.7
20260507025505 64 196 1.0 3.0 0.00 0.00 0.00 72 1010.7
20260507025404 64 201 1.0 3.0 0.00 0.00 0.00 72 1010.8
20260507025306 64 203 1.0 3.0 0.00 0.00 0.00 72 1010.8
20260507025205 64 205 1.0 3.0 0.00 0.00 0.00 72 1010.8
20260507025105 64 211 1.0 4.0 0.00 0.00 0.00 73 1010.8
20260507025007 64 210 1.0 4.0 0.00 0.00 0.00 73 1010.9
20260507024905 64 209 1.0 4.0 0.00 0.00 0.00 73 1010.8
20260507024804 64 211 2.0 4.0 0.00 0.00 0.00 73 1010.8
20260507024705 64 213 2.0 4.0 0.00 0.00 0.00 74 1010.8
20260507024606 64 213 2.0 4.0 0.00 0.00 0.00 74 1010.7
20260507024505 64 211 2.0 4.0 0.00 0.00 0.00 74 1010.7
20260507024405 64 209 2.0 4.0 0.00 0.00 0.00 74 1010.6
20260507024305 64 209 2.0 4.0 0.00 0.00 0.00 75 1010.6
20260507024205 64 208 2.0 4.0 0.00 0.00 0.00 75 1010.5
20260507024105 64 206 2.0 4.0 0.00 0.00 0.00 75 1010.5
20260507024005 64 205 2.0 4.0 0.00 0.00 0.00 75 1010.5
20260507023906 64 205 2.0 4.0 0.00 0.00 0.00 75 1010.5
20260507023807 64 207 2.0 4.0 0.00 0.00 0.00 75 1010.5
20260507023705 64 207 2.0 4.0 0.00 0.00 0.00 75 1010.5
20260507023606 64 208 2.0 4.0 0.00 0.00 0.00 75 1010.8
20260507023506 64 210 2.0 4.0 0.00 0.00 0.00 76 1010.8
20260507023414 64 209 2.0 5.0 0.00 0.00 0.00 76 1010.7
20260507023306 64 207 2.0 5.0 0.00 0.00 0.00 76 1010.7
20260507023215 64 207 2.0 5.0 0.00 0.00 0.00 76 1010.7
20260507023114 64 205 2.0 5.0 0.00 0.00 0.00 77 1010.7
20260507023005 64 201 2.0 5.0 0.00 0.00 0.00 77 1010.7
20260507022905 64 201 2.0 5.0 0.00 0.00 0.00 77 1010.7
20260507022804 64 200 2.0 5.0 0.00 0.00 0.00 77 1010.7
20260507022705 64 197 2.0 5.0 0.00 0.00 0.00 77 1010.7
20260507022605 64 197 2.0 5.0 0.00 0.00 0.00 77 1010.6
20260507022505 64 196 2.0 5.0 0.00 0.00 0.00 77 1010.6
20260507022405 64 197 2.0 4.0 0.00 0.00 0.00 77 1010.6
20260507022306 64 195 2.0 4.0 0.00 0.00 0.00 77 1010.7
20260507022204 64 196 2.0 4.0 0.00 0.00 0.00 77 1010.7
20260507022104 64 198 2.0 4.0 0.00 0.00 0.00 77 1010.8
20260507022007 64 205 2.0 4.0 0.00 0.00 0.00 78 1010.8
20260507021905 64 207 2.0 6.0 0.00 0.00 0.00 78 1010.9
20260507021805 64 207 2.0 6.0 0.00 0.00 0.00 78 1011.0
20260507021705 64 208 2.0 6.0 0.00 0.00 0.00 78 1011.0
20260507021606 64 208 2.0 6.0 0.00 0.00 0.00 79 1010.9
20260507021504 64 208 2.0 6.0 0.00 0.00 0.00 79 1010.9
20260507021404 64 207 2.0 6.0 0.00 0.00 0.00 79 1011.0
20260507021304 64 209 2.0 6.0 0.00 0.00 0.00 80 1011.0
20260507021204 64 210 2.0 6.0 0.00 0.00 0.00 80 1011.0
20260507021104 64 211 2.0 6.0 0.00 0.00 0.00 80 1011.0
20260507021005 64 209 2.0 6.0 0.00 0.00 0.00 80 1010.9
20260507020904 64 207 2.0 6.0 0.00 0.00 0.00 80 1010.9
20260507020804 64 208 2.0 6.0 0.00 0.00 0.00 80 1010.9
20260507020704 64 209 2.0 6.0 0.00 0.00 0.00 80 1010.9
20260507020604 64 210 2.0 7.0 0.00 0.00 0.00 81 1011.0
20260507020507 64 211 2.0 7.0 0.00 0.00 0.00 81 1011.1
20260507020407 64 213 2.0 7.0 0.00 0.00 0.00 81 1011.1
20260507020304 64 213 2.0 7.0 0.00 0.00 0.00 81 1011.0
20260507020205 64 214 2.0 7.0 0.00 0.00 0.00 82 1011.0
20260507020105 64 213 2.0 7.0 0.00 0.00 0.00 82 1011.1
20260507020004 64 213 2.0 7.0 0.00 0.00 0.00 82 1011.0
20260507015904 64 210 2.0 7.0 0.00 0.00 0.00 82 1011.0
20260507015804 64 210 2.0 7.0 0.00 0.00 0.00 82 1011.0
20260507015704 64 210 2.0 7.0 0.00 0.00 0.00 82 1011.0
20260507015604 64 209 2.0 7.0 0.00 0.00 0.00 83 1011.0
20260507015504 64 209 2.0 6.0 0.00 0.00 0.00 83 1010.9
20260507015404 64 208 2.0 6.0 0.00 0.00 0.00 83 1010.9
20260507015306 64 208 2.0 6.0 0.00 0.00 0.00 83 1010.9
20260507015204 64 206 3.0 6.0 0.00 0.00 0.00 83 1010.8
20260507015104 64 207 3.0 6.0 0.00 0.00 0.00 83 1010.8
20260507015005 64 205 2.0 6.0 0.00 0.00 0.00 83 1010.8
20260507014904 64 208 2.0 6.0 0.00 0.00 0.00 83 1010.8
20260507014804 64 206 2.0 6.0 0.00 0.00 0.00 83 1010.9
20260507014705 64 206 2.0 6.0 0.00 0.00 0.00 83 1010.9
20260507014605 64 205 2.0 6.0 0.00 0.00 0.00 83 1010.9
20260507014505 64 200 2.0 5.0 0.00 0.00 0.00 83 1010.9
20260507014404 64 199 2.0 5.0 0.00 0.00 0.00 83 1010.9
20260507014304 64 197 2.0 5.0 0.00 0.00 0.00 83 1010.8
20260507014204 64 198 2.0 5.0 0.00 0.00 0.00 83 1010.8
20260507014104 64 196 3.0 5.0 0.00 0.00 0.00 83 1010.8
20260507014004 64 197 3.0 5.0 0.00 0.00 0.00 83 1010.8
20260507013904 64 195 3.0 7.0 0.00 0.00 0.00 83 1010.8
20260507013804 64 198 3.0 7.0 0.00 0.00 0.00 82 1010.8
20260507013704 64 198 3.0 7.0 0.00 0.00 0.00 82 1010.9
20260507013604 64 197 3.0 7.0 0.00 0.00 0.00 82 1010.9
20260507013506 64 202 3.0 7.0 0.00 0.00 0.00 82 1010.9
20260507013405 64 203 3.0 7.0 0.00 0.00 0.00 82 1011.0
20260507013305 64 203 3.0 7.0 0.00 0.00 0.00 82 1011.0
20260507013106 64 204 3.0 7.0 0.00 0.00 0.00 82 1011.0
20260507013004 64 205 3.0 7.0 0.00 0.00 0.00 82 1011.1
20260507012904 64 207 3.0 7.0 0.00 0.00 0.00 82 1011.2
20260507012804 64 205 3.0 7.0 0.00 0.00 0.00 82 1011.2
20260507012704 64 206 3.0 7.0 0.00 0.00 0.00 82 1011.3
20260507012604 64 207 3.0 7.0 0.00 0.00 0.00 82 1011.3
20260507012504 64 206 3.0 7.0 0.00 0.00 0.00 82 1011.2
20260507012404 64 206 3.0 7.0 0.00 0.00 0.00 82 1011.3
20260507012306 64 209 3.0 7.0 0.00 0.00 0.00 82 1011.3
20260507012204 64 208 3.0 7.0 0.00 0.00 0.00 82 1011.3
20260507012104 64 208 3.0 7.0 0.00 0.00 0.00 82 1011.2
20260507012004 64 208 3.0 8.0 0.00 0.00 0.00 82 1011.2
20260507011908 64 207 3.0 8.0 0.00 0.00 0.00 82 1011.2
20260507011805 64 208 3.0 8.0 0.00 0.00 0.00 82 1011.2
20260507011703 64 208 3.0 8.0 0.00 0.00 0.00 82 1011.2
20260507011605 64 209 3.0 8.0 0.00 0.00 0.00 82 1011.2
20260507011504 64 208 4.0 8.0 0.00 0.00 0.00 82 1011.2
20260507011404 64 208 4.0 8.0 0.00 0.00 0.00 82 1011.1
20260507011304 64 206 4.0 8.0 0.00 0.00 0.00 82 1011.1
20260507011204 64 206 4.0 8.0 0.00 0.00 0.00 82 1011.1
20260507011104 64 206 4.0 8.0 0.00 0.00 0.00 82 1011.2
20260507011004 64 205 4.0 8.0 0.00 0.00 0.00 82 1011.2
20260507010903 64 205 4.0 8.0 0.00 0.00 0.00 82 1011.2
20260507010804 64 204 4.0 8.0 0.00 0.00 0.00 82 1011.2
20260507010703 64 200 4.0 8.0 0.00 0.00 0.00 82 1011.3
20260507010604 64 200 4.0 8.0 0.00 0.00 0.00 82 1011.2
20260507010503 64 200 4.0 8.0 0.00 0.00 0.00 82 1011.2
20260507010408 64 197 4.0 8.0 0.00 0.00 0.00 82 1011.3
20260507010304 64 197 4.0 10.0 0.00 0.00 0.00 82 1011.2
20260507010203 64 197 4.0 10.0 0.00 0.00 0.00 82 1011.2
20260507010106 64 196 4.0 10.0 0.00 0.00 0.00 82 1011.3
20260507010012 64 195 4.0 10.0 0.00 0.00 0.00 82 1011.3
20260507005905 64 193 4.0 10.0 0.00 0.00 0.00 82 1011.3
20260507005805 64 193 4.0 10.0 0.00 0.00 0.00 82 1011.4
20260507005704 64 196 4.0 10.0 0.00 0.00 0.00 82 1011.4
20260507005605 64 195 4.0 10.0 0.00 0.00 0.00 82 1011.3
20260507005505 64 197 4.0 10.0 0.00 0.00 0.00 82 1011.3
20260507005405 64 198 4.0 10.0 0.00 0.00 0.00 82 1011.3
20260507005306 64 199 3.0 7.0 0.00 0.00 0.00 82 1011.3
20260507005205 64 198 3.0 7.0 0.00 0.00 0.00 81 1011.3
20260507005104 64 196 3.0 7.0 0.00 0.00 0.00 81 1011.3
20260507005006 64 197 3.0 7.0 0.00 0.00 0.00 81 1011.3
20260507004905 64 199 3.0 7.0 0.00 0.00 0.00 81 1011.2
20260507004810 64 198 3.0 7.0 0.00 0.00 0.00 81 1011.3
20260507004705 64 197 3.0 7.0 0.00 0.00 0.00 81 1011.3
20260507004606 64 196 3.0 7.0 0.00 0.00 0.00 81 1011.2
20260507004505 64 193 3.0 7.0 0.00 0.00 0.00 81 1011.3
20260507004404 64 194 3.0 7.0 0.00 0.00 0.00 81 1011.3
20260507004305 64 194 3.0 7.0 0.00 0.00 0.00 81 1011.3
20260507004205 64 195 3.0 7.0 0.00 0.00 0.00 81 1011.3
20260507004105 64 195 3.0 6.0 0.00 0.00 0.00 81 1011.4
20260507004005 64 196 2.0 6.0 0.00 0.00 0.00 81 1011.4
20260507003905 64 196 2.0 6.0 0.00 0.00 0.00 81 1011.4
20260507003804 64 197 2.0 6.0 0.00 0.00 0.00 81 1011.6
20260507003705 64 198 2.0 6.0 0.00 0.00 0.00 81 1011.6
20260507003605 64 199 2.0 6.0 0.00 0.00 0.00 81 1011.6
20260507003504 64 202 2.0 5.0 0.00 0.00 0.00 81 1011.6
20260507003405 64 202 2.0 5.0 0.00 0.00 0.00 81 1011.6
20260507003307 64 203 2.0 5.0 0.00 0.00 0.00 81 1011.7
20260507003204 64 202 2.0 5.0 0.00 0.00 0.00 81 1011.7
20260507003105 64 202 2.0 5.0 0.00 0.00 0.00 81 1011.6
20260507003004 64 198 2.0 5.0 0.00 0.00 0.00 81 1011.6
20260507002905 64 198 2.0 5.0 0.00 0.00 0.00 81 1011.6
20260507002824 64 198 2.0 5.0 0.00 0.00 0.00 81 1011.7
20260507002722 64 197 2.0 5.0 0.00 0.00 0.00 81 1011.7
20260507002620 64 195 2.0 5.0 0.00 0.00 0.00 81 1011.8
20260507002524 64 195 2.0 5.0 0.00 0.00 0.00 81 1011.7
20260507002420 64 193 2.0 5.0 0.00 0.00 0.00 81 1011.7
20260507002312 64 193 2.0 5.0 0.00 0.00 0.00 82 1011.7
20260507002223 64 191 2.0 5.0 0.00 0.00 0.00 82 1011.7
20260507002123 64 197 2.0 5.0 0.00 0.00 0.00 82 1011.8
20260507002023 64 201 2.0 5.0 0.00 0.00 0.00 82 1011.9
20260507001919 64 201 2.0 5.0 0.00 0.00 0.00 82 1011.9
20260507001823 64 202 2.0 5.0 0.00 0.00 0.00 82 1011.9
20260507001706 64 203 2.0 5.0 0.00 0.00 0.00 82 1011.9
20260507001606 64 204 2.0 5.0 0.00 0.00 0.00 82 1011.9
20260507001504 64 203 2.0 5.0 0.00 0.00 0.00 82 1011.9
20260507001404 64 204 2.0 5.0 0.00 0.00 0.00 82 1011.9
20260507001304 64 205 2.0 5.0 0.00 0.00 0.00 82 1011.9
20260507001204 64 207 2.0 5.0 0.00 0.00 0.00 82 1011.8
20260507001104 64 206 3.0 6.0 0.00 0.00 0.00 82 1011.8
20260507001004 64 206 3.0 6.0 0.00 0.00 0.00 82 1011.9
20260507000904 64 208 3.0 6.0 0.00 0.00 0.00 82 1011.8
20260507000804 64 205 3.0 7.0 0.00 0.00 0.00 82 1011.8
20260507000704 64 206 3.0 7.0 0.00 0.00 0.00 82 1011.9
20260507000604 64 205 3.0 7.0 0.00 0.00 0.00 83 1011.9
20260507000504 64 202 3.0 7.0 0.00 0.00 0.00 83 1011.8
20260507000406 64 202 3.0 7.0 0.00 0.00 0.00 83 1011.9
20260507000306 64 199 3.0 7.0 0.00 0.00 0.00 83 1011.9
20260507000205 64 196 3.0 7.0 0.00 0.00 0.00 83 1011.9
20260507000106 64 198 3.0 7.0 0.00 0.00 0.00 83 1011.9
20260507000005 64 198 3.0 7.0 0.00 0.00 0.00 83 1011.8
20260506235904 64 198 3.0 7.0 0.00 0.00 0.00 83 1011.7
20260506235804 64 199 3.0 7.0 0.00 0.00 0.00 83 1011.7
20260506235704 64 198 3.0 7.0 0.00 0.00 0.00 83 1011.8
20260506235604 64 197 3.0 7.0 0.00 0.00 0.00 83 1011.8
20260506235505 64 201 3.0 7.0 0.00 0.00 0.00 83 1011.8
20260506235404 64 202 4.0 7.0 0.00 0.00 0.00 83 1011.7
20260506235306 64 205 4.0 7.0 0.00 0.00 0.00 83 1011.7
20260506235203 64 207 4.0 7.0 0.00 0.00 0.00 83 1011.7
20260506235103 64 205 4.0 7.0 0.00 0.00 0.00 83 1011.8
20260506235006 64 205 4.0 7.0 0.00 0.00 0.00 83 1011.8
20260506234909 64 205 4.0 7.0 0.00 0.00 0.00 83 1011.8
20260506234805 64 207 4.0 8.0 0.00 0.00 0.00 83 1011.8
20260506234704 64 209 5.0 8.0 0.00 0.00 0.00 83 1011.8
20260506234605 64 209 5.0 8.0 0.00 0.00 0.00 83 1011.9
20260506234504 64 206 5.0 8.0 0.00 0.00 0.00 83 1011.9
20260506234404 64 206 5.0 9.0 0.00 0.00 0.00 83 1011.9
20260506234304 64 206 5.0 9.0 0.00 0.00 0.00 83 1012.0
20260506234203 64 208 5.0 9.0 0.00 0.00 0.00 83 1012.0
20260506234104 64 208 5.0 9.0 0.00 0.00 0.00 83 1011.9
20260506234004 64 207 5.0 9.0 0.00 0.00 0.00 83 1011.9
20260506233904 64 208 5.0 12.0 0.00 0.00 0.00 83 1011.8
20260506233803 64 207 5.0 12.0 0.00 0.00 0.00 83 1011.8
20260506233703 64 207 5.0 12.0 0.00 0.00 0.00 83 1011.8
20260506233603 64 208 5.0 12.0 0.00 0.00 0.00 83 1011.6
20260506233505 64 209 5.0 12.0 0.00 0.00 0.00 83 1011.6
20260506233404 64 209 5.0 12.0 0.00 0.00 0.00 83 1011.7
20260506233304 64 207 5.0 12.0 0.00 0.00 0.00 82 1011.6
20260506233205 64 206 5.0 12.0 0.00 0.00 0.00 82 1011.6
20260506233004 64 207 5.0 12.0 0.00 0.00 0.00 82 1011.6
20260506232904 64 206 5.0 12.0 0.00 0.00 0.00 82 1011.5
20260506232804 64 206 5.0 11.0 0.00 0.00 0.00 82 1011.5
20260506232705 64 208 5.0 11.0 0.00 0.00 0.00 82 1011.5
20260506232605 64 207 5.0 11.0 0.00 0.00 0.00 82 1011.5
20260506232504 64 209 5.0 14.0 0.00 0.00 0.00 82 1011.5
20260506232404 64 210 5.0 14.0 0.00 0.00 0.00 82 1011.5
20260506232306 64 213 5.0 14.0 0.00 0.00 0.00 83 1011.5
20260506232204 64 211 5.0 14.0 0.00 0.00 0.00 83 1011.5
20260506232104 64 209 5.0 14.0 0.00 0.00 0.00 83 1011.6
20260506232005 64 215 5.0 14.0 0.00 0.00 0.00 83 1011.5
20260506231904 64 217 5.0 14.0 0.00 0.00 0.00 83 1011.5
20260506231804 64 251 5.0 14.0 0.00 0.00 0.00 83 1011.4
20260506231704 64 17 5.0 14.0 0.00 0.00 0.00 83 1011.4
20260506231605 64 22 5.0 14.0 0.00 0.00 0.00 83 1011.4
20260506230905 64 203 5.0 12.0 0.00 0.00 0.00 83 1011.4
20260506230805 64 199 5.0 12.0 0.00 0.00 0.00 83 1011.4
20260506230704 64 200 5.0 10.0 0.00 0.00 0.00 82 1011.3
20260506230604 64 201 5.0 10.0 0.00 0.00 0.00 82 1011.3
20260506230506 64 200 5.0 10.0 0.00 0.00 0.00 82 1011.3
20260506230405 64 200 5.0 10.0 0.00 0.00 0.00 82 1011.3
20260506230305 64 203 5.0 10.0 0.00 0.00 0.00 82 1011.3
20260506230206 64 203 5.0 10.0 0.00 0.00 0.00 82 1011.4
20260506230109 64 202 5.0 10.0 0.00 0.00 0.00 82 1011.4
20260506230005 64 201 5.0 10.0 0.00 0.00 0.00 82 1011.4
20260506225904 64 204 5.0 11.0 0.00 0.00 0.00 82 1011.4
20260506225804 64 207 5.0 11.0 0.00 0.00 0.00 82 1011.2
20260506225704 64 207 5.0 11.0 0.00 0.00 0.00 82 1011.2
20260506225604 65 206 5.0 11.0 0.00 0.00 0.00 81 1011.3
20260506225505 64 205 5.0 11.0 0.00 0.00 0.00 81 1011.3
20260506225404 65 203 5.0 11.0 0.00 0.00 0.00 81 1011.3
20260506225306 65 201 6.0 11.0 0.00 0.00 0.00 81 1011.2
20260506225205 65 201 6.0 11.0 0.00 0.00 0.00 81 1011.2
20260506225104 65 203 6.0 11.0 0.00 0.00 0.00 81 1011.3
20260506225008 65 203 6.0 11.0 0.00 0.00 0.00 81 1011.3
20260506224904 65 201 6.0 11.0 0.00 0.00 0.00 80 1011.2
20260506224806 65 201 6.0 11.0 0.00 0.00 0.00 80 1011.2
20260506224705 65 203 6.0 11.0 0.00 0.00 0.00 80 1011.2
20260506224606 65 202 5.0 13.0 0.00 0.00 0.00 79 1011.3
20260506224505 65 204 5.0 13.0 0.00 0.00 0.00 79 1011.3
20260506224404 65 207 5.0 13.0 0.00 0.00 0.00 79 1011.2
20260506224304 65 207 5.0 13.0 0.00 0.00 0.00 78 1011.1
20260506224204 65 209 5.0 13.0 0.00 0.00 0.00 78 1011.1